Time,TemperatureF,DewpointF,PressureIn,WindDirection,WindDirectionDegrees,WindSpeedMPH,WindSpeedGustMPH,Humidity,HourlyPrecipIn,Conditions,Clouds,dailyrainin,SoftwareType,DateUTC
2013-02-03 00:00:00,55.9,53.9,30.08,East,98,0.0,0.0,93,0.00,,,0.02,Wunderground v.1.15,2013-02-03 05:00:00,
2013-02-03 00:03:00,55.8,54.1,30.08,East,98,0.0,0.0,94,0.00,,,0.02,Wunderground v.1.15,2013-02-03 05:03:00,
2013-02-03 00:05:00,55.8,54.1,30.08,East,98,0.0,0.0,94,0.00,,,0.02,Wunderground v.1.15,2013-02-03 05:05:00,
2013-02-03 00:07:00,55.7,54.0,30.08,East,98,0.0,0.0,94,0.00,,,0.02,Wunderground v.1.15,2013-02-03 05:07:00,
2013-02-03 00:08:00,55.7,54.0,30.08,East,98,0.0,0.0,94,0.00,,,0.02,Wunderground v.1.15,2013-02-03 05:08:00,
2013-02-03 00:10:00,55.6,53.9,30.08,East,98,0.0,0.0,94,0.00,,,0.02,Wunderground v.1.15,2013-02-03 05:10:00,
2013-02-03 00:12:00,55.5,53.8,30.08,East,98,0.0,0.0,94,0.00,,,0.02,Wunderground v.1.15,2013-02-03 05:12:00,
2013-02-03 00:13:00,55.5,53.8,30.08,East,98,0.0,0.0,94,0.00,,,0.02,Wunderground v.1.15,2013-02-03 05:13:00,
2013-02-03 00:16:00,55.5,53.8,30.08,East,98,0.0,0.0,94,0.00,,,0.02,Wunderground v.1.15,2013-02-03 05:16:00,
2013-02-03 00:17:00,55.5,53.8,30.08,East,98,0.0,0.0,94,0.00,,,0.02,Wunderground v.1.15,2013-02-03 05:17:00,
2013-02-03 00:18:00,55.5,53.8,30.08,East,98,0.0,0.0,94,0.00,,,0.02,Wunderground v.1.15,2013-02-03 05:18:00,
2013-02-03 00:21:00,55.5,53.8,30.08,East,98,0.0,0.0,94,0.00,,,0.02,Wunderground v.1.15,2013-02-03 05:21:00,
2013-02-03 00:23:00,55.5,53.8,30.08,East,98,0.0,0.0,94,0.00,,,0.02,Wunderground v.1.15,2013-02-03 05:23:00,
2013-02-03 00:24:00,55.4,53.7,30.08,East,98,0.0,0.0,94,0.00,,,0.02,Wunderground v.1.15,2013-02-03 05:24:00,
2013-02-03 00:25:00,55.4,53.7,30.08,East,98,0.0,0.0,94,0.00,,,0.02,Wunderground v.1.15,2013-02-03 05:25:00,
2013-02-03 00:27:00,55.3,53.6,30.08,East,98,0.0,0.0,94,0.00,,,0.02,Wunderground v.1.15,2013-02-03 05:27:00,
2013-02-03 00:29:00,55.3,53.6,30.08,East,98,0.0,0.0,94,0.00,,,0.02,Wunderground v.1.15,2013-02-03 05:29:00,
2013-02-03 00:32:00,55.4,53.7,30.08,East,98,0.0,0.0,94,0.00,,,0.02,Wunderground v.1.15,2013-02-03 05:32:00,
2013-02-03 00:33:00,55.4,53.7,30.08,East,98,0.0,0.0,94,0.00,,,0.02,Wunderground v.1.15,2013-02-03 05:33:00,
2013-02-03 00:35:00,55.3,53.6,30.07,East,98,0.0,0.0,94,0.00,,,0.02,Wunderground v.1.15,2013-02-03 05:35:00,
2013-02-03 00:39:00,55.4,53.7,30.07,East,98,0.0,0.0,94,0.00,,,0.02,Wunderground v.1.15,2013-02-03 05:39:00,
2013-02-03 00:40:00,55.4,53.7,30.07,East,98,0.0,0.0,94,0.00,,,0.02,Wunderground v.1.15,2013-02-03 05:40:00,
2013-02-03 00:41:00,55.4,53.7,30.07,East,98,0.0,0.0,94,0.00,,,0.02,Wunderground v.1.15,2013-02-03 05:41:00,
2013-02-03 00:42:00,55.4,53.7,30.07,East,98,0.0,0.0,94,0.00,,,0.02,Wunderground v.1.15,2013-02-03 05:42:00,
2013-02-03 00:46:00,55.4,53.7,30.07,East,98,0.0,0.0,94,0.00,,,0.02,Wunderground v.1.15,2013-02-03 05:46:00,
2013-02-03 00:47:00,55.3,53.6,30.07,East,98,0.0,0.0,94,0.00,,,0.02,Wunderground v.1.15,2013-02-03 05:47:00,
2013-02-03 00:48:00,55.3,53.6,30.07,East,98,0.0,0.0,94,0.00,,,0.02,Wunderground v.1.15,2013-02-03 05:48:00,
2013-02-03 00:52:00,55.2,53.8,30.07,East,98,0.0,0.0,95,0.00,,,0.02,Wunderground v.1.15,2013-02-03 05:52:00,
2013-02-03 00:54:00,55.1,53.7,30.07,East,98,0.0,0.0,95,0.00,,,0.02,Wunderground v.1.15,2013-02-03 05:54:00,
2013-02-03 00:57:00,54.9,53.5,30.07,East,98,0.0,0.0,95,0.00,,,0.02,Wunderground v.1.15,2013-02-03 05:57:00,
2013-02-03 00:58:00,54.9,53.2,30.07,East,98,0.0,0.0,94,0.00,,,0.02,Wunderground v.1.15,2013-02-03 05:58:00,
2013-02-03 00:59:00,54.9,53.2,30.07,East,98,0.0,0.0,94,0.00,,,0.02,Wunderground v.1.15,2013-02-03 05:59:00,
2013-02-03 01:00:00,54.9,53.2,30.07,East,98,0.0,0.0,94,0.00,,,0.02,Wunderground v.1.15,2013-02-03 06:00:00,
2013-02-03 01:03:00,55.0,53.6,30.07,East,98,0.0,0.0,95,0.00,,,0.02,Wunderground v.1.15,2013-02-03 06:03:00,
2013-02-03 01:04:00,55.0,53.6,30.07,East,98,0.0,0.0,95,0.00,,,0.02,Wunderground v.1.15,2013-02-03 06:04:00,
2013-02-03 01:08:00,55.0,53.6,30.07,East,98,0.0,0.0,95,0.00,,,0.02,Wunderground v.1.15,2013-02-03 06:08:00,
2013-02-03 01:09:00,55.0,53.6,30.07,East,98,0.0,0.0,95,0.00,,,0.02,Wunderground v.1.15,2013-02-03 06:09:00,
2013-02-03 01:12:00,55.1,53.7,30.06,East,98,0.0,0.0,95,0.00,,,0.02,Wunderground v.1.15,2013-02-03 06:12:00,
2013-02-03 01:13:00,55.1,53.7,30.06,East,98,0.0,0.0,95,0.00,,,0.02,Wunderground v.1.15,2013-02-03 06:13:00,
2013-02-03 01:15:00,55.1,53.7,30.06,East,98,0.0,0.0,95,0.00,,,0.02,Wunderground v.1.15,2013-02-03 06:15:00,
2013-02-03 01:17:00,55.1,53.7,30.06,East,98,0.0,0.0,95,0.00,,,0.02,Wunderground v.1.15,2013-02-03 06:17:00,
2013-02-03 01:20:00,55.0,53.6,30.06,East,98,0.0,0.0,95,0.00,,,0.02,Wunderground v.1.15,2013-02-03 06:20:00,
2013-02-03 01:22:00,54.9,53.5,30.06,East,98,0.0,0.0,95,0.00,,,0.02,Wunderground v.1.15,2013-02-03 06:22:00,
2013-02-03 01:23:00,54.9,53.5,30.06,East,98,0.0,0.0,95,0.00,,,0.02,Wunderground v.1.15,2013-02-03 06:23:00,
2013-02-03 01:26:00,54.7,53.3,30.06,East,98,0.0,0.0,95,0.00,,,0.00,Wunderground v.1.15,2013-02-03 06:26:00,
2013-02-03 01:27:00,54.6,53.2,30.06,East,98,0.0,0.0,95,0.00,,,0.00,Wunderground v.1.15,2013-02-03 06:27:00,
2013-02-03 01:31:00,54.5,53.1,30.05,East,98,0.0,0.0,95,0.00,,,0.00,Wunderground v.1.15,2013-02-03 06:31:00,
2013-02-03 01:32:00,54.5,53.1,30.05,East,98,0.0,0.0,95,0.00,,,0.00,Wunderground v.1.15,2013-02-03 06:32:00,
2013-02-03 01:33:00,54.5,53.1,30.05,East,98,0.0,0.0,95,0.00,,,0.00,Wunderground v.1.15,2013-02-03 06:33:00,
2013-02-03 01:37:00,54.5,53.1,30.06,East,98,0.0,0.0,95,0.00,,,0.00,Wunderground v.1.15,2013-02-03 06:37:00,
2013-02-03 01:38:00,54.6,53.2,30.06,East,98,0.0,0.0,95,0.00,,,0.00,Wunderground v.1.15,2013-02-03 06:38:00,
2013-02-03 01:42:00,54.7,53.3,30.06,East,98,0.0,0.0,95,0.00,,,0.00,Wunderground v.1.15,2013-02-03 06:42:00,
2013-02-03 01:43:00,54.7,53.3,30.06,East,98,0.0,0.0,95,0.00,,,0.00,Wunderground v.1.15,2013-02-03 06:43:00,
2013-02-03 01:44:00,54.7,53.3,30.06,East,98,0.0,0.0,95,0.00,,,0.00,Wunderground v.1.15,2013-02-03 06:44:00,
2013-02-03 01:47:00,54.6,53.2,30.05,East,98,0.0,0.0,95,0.00,,,0.00,Wunderground v.1.15,2013-02-03 06:47:00,
2013-02-03 01:49:00,54.5,53.1,30.05,East,98,0.0,0.0,95,0.00,,,0.00,Wunderground v.1.15,2013-02-03 06:49:00,
2013-02-03 01:50:00,54.5,53.1,30.05,East,98,0.0,0.0,95,0.00,,,0.00,Wunderground v.1.15,2013-02-03 06:50:00,
2013-02-03 01:52:00,54.5,53.1,30.05,East,98,0.0,0.0,95,0.00,,,0.00,Wunderground v.1.15,2013-02-03 06:52:00,
2013-02-03 01:54:00,54.4,53.0,30.05,East,98,0.0,0.0,95,0.00,,,0.00,Wunderground v.1.15,2013-02-03 06:54:00,
2013-02-03 01:58:00,54.4,53.0,30.05,East,98,0.0,0.0,95,0.00,,,0.00,Wunderground v.1.15,2013-02-03 06:58:00,
2013-02-03 02:00:00,54.3,52.9,30.05,East,98,0.0,0.0,95,0.00,,,0.00,Wunderground v.1.15,2013-02-03 07:00:00,
2013-02-03 02:01:00,54.3,52.9,30.05,East,98,0.0,0.0,95,0.00,,,0.00,Wunderground v.1.15,2013-02-03 07:01:00,
2013-02-03 02:04:00,54.3,52.9,30.05,East,98,0.0,0.0,95,0.00,,,0.00,Wunderground v.1.15,2013-02-03 07:04:00,
2013-02-03 02:05:00,54.3,52.9,30.05,East,98,0.0,0.0,95,0.00,,,0.00,Wunderground v.1.15,2013-02-03 07:05:00,
2013-02-03 02:06:00,54.3,52.9,30.05,East,98,0.0,0.0,95,0.00,,,0.00,Wunderground v.1.15,2013-02-03 07:06:00,
2013-02-03 02:07:00,54.2,52.8,30.05,East,98,0.0,0.0,95,0.00,,,0.00,Wunderground v.1.15,2013-02-03 07:07:00,
2013-02-03 02:09:00,54.2,52.8,30.05,East,98,0.0,0.0,95,0.00,,,0.00,Wunderground v.1.15,2013-02-03 07:09:00,
2013-02-03 02:10:00,54.2,52.8,30.05,East,98,0.0,0.0,95,0.00,,,0.00,Wunderground v.1.15,2013-02-03 07:10:00,
2013-02-03 02:11:00,54.2,52.8,30.05,East,98,0.0,0.0,95,0.00,,,0.00,Wunderground v.1.15,2013-02-03 07:11:00,
2013-02-03 02:12:00,54.2,52.8,30.05,East,98,0.0,0.0,95,0.00,,,0.00,Wunderground v.1.15,2013-02-03 07:12:00,
2013-02-03 02:15:00,54.2,52.8,30.05,East,98,0.0,0.0,95,0.00,,,0.00,Wunderground v.1.15,2013-02-03 07:15:00,
2013-02-03 02:16:00,54.2,52.8,30.05,East,98,0.0,0.0,95,0.00,,,0.00,Wunderground v.1.15,2013-02-03 07:16:00,
2013-02-03 02:17:00,54.2,52.8,30.05,East,98,0.0,0.0,95,0.00,,,0.00,Wunderground v.1.15,2013-02-03 07:17:00,
2013-02-03 02:21:00,54.1,52.7,30.05,East,98,0.0,0.0,95,0.00,,,0.00,Wunderground v.1.15,2013-02-03 07:21:00,
2013-02-03 02:22:00,54.1,52.7,30.05,East,98,0.0,0.0,95,0.00,,,0.00,Wunderground v.1.15,2013-02-03 07:22:00,
2013-02-03 02:23:00,54.1,52.7,30.05,East,98,0.0,0.0,95,0.00,,,0.00,Wunderground v.1.15,2013-02-03 07:23:00,
2013-02-03 02:24:00,54.1,52.7,30.05,East,98,0.0,0.0,95,0.00,,,0.00,Wunderground v.1.15,2013-02-03 07:24:00,
2013-02-03 02:27:00,54.1,52.7,30.05,East,98,0.0,0.0,95,0.00,,,0.00,Wunderground v.1.15,2013-02-03 07:27:00,
2013-02-03 02:28:00,54.1,52.7,30.05,East,98,0.0,0.0,95,0.00,,,0.00,Wunderground v.1.15,2013-02-03 07:28:00,
2013-02-03 02:29:00,54.1,52.7,30.05,East,98,0.0,0.0,95,0.00,,,0.00,Wunderground v.1.15,2013-02-03 07:29:00,
2013-02-03 02:33:00,54.2,53.1,30.04,East,98,0.0,0.0,96,0.00,,,0.00,Wunderground v.1.15,2013-02-03 07:33:00,
2013-02-03 02:34:00,54.2,53.1,30.04,East,98,0.0,0.0,96,0.00,,,0.00,Wunderground v.1.15,2013-02-03 07:34:00,
2013-02-03 02:38:00,54.1,53.0,30.04,East,98,0.0,0.0,96,0.00,,,0.00,Wunderground v.1.15,2013-02-03 07:38:00,
2013-02-03 02:39:00,54.1,53.0,30.04,East,98,0.0,0.0,96,0.00,,,0.00,Wunderground v.1.15,2013-02-03 07:39:00,
2013-02-03 02:43:00,54.1,53.0,30.04,East,98,0.0,0.0,96,0.00,,,0.00,Wunderground v.1.15,2013-02-03 07:43:00,
2013-02-03 02:44:00,54.2,53.1,30.04,East,98,0.0,0.0,96,0.00,,,0.00,Wunderground v.1.15,2013-02-03 07:44:00,
2013-02-03 02:45:00,54.2,53.1,30.04,East,98,0.0,0.0,96,0.00,,,0.00,Wunderground v.1.15,2013-02-03 07:45:00,
2013-02-03 02:48:00,54.3,53.2,30.05,East,98,0.0,0.0,96,0.00,,,0.00,Wunderground v.1.15,2013-02-03 07:48:00,
2013-02-03 02:50:00,54.3,53.2,30.04,East,98,0.0,0.0,96,0.00,,,0.00,Wunderground v.1.15,2013-02-03 07:50:00,
2013-02-03 02:53:00,54.2,53.1,30.04,East,98,0.0,0.0,96,0.00,,,0.00,Wunderground v.1.15,2013-02-03 07:53:00,
2013-02-03 02:55:00,54.1,53.0,30.04,East,98,0.0,0.0,96,0.00,,,0.00,Wunderground v.1.15,2013-02-03 07:55:00,
2013-02-03 02:56:00,54.1,53.0,30.04,East,98,0.0,0.0,96,0.00,,,0.00,Wunderground v.1.15,2013-02-03 07:56:00,
2013-02-03 03:00:00,54.2,53.1,30.04,East,98,0.0,0.0,96,0.00,,,0.00,Wunderground v.1.15,2013-02-03 08:00:00,
2013-02-03 03:01:00,54.3,53.2,30.04,East,98,0.0,0.0,96,0.00,,,0.00,Wunderground v.1.15,2013-02-03 08:01:00,
2013-02-03 03:02:00,54.3,53.2,30.04,East,98,0.0,0.0,96,0.00,,,0.00,Wunderground v.1.15,2013-02-03 08:02:00,
2013-02-03 03:06:00,54.4,53.3,30.04,East,98,0.0,0.0,96,0.00,,,0.00,Wunderground v.1.15,2013-02-03 08:06:00,
2013-02-03 03:07:00,54.4,53.3,30.04,East,98,0.0,0.0,96,0.00,,,0.00,Wunderground v.1.15,2013-02-03 08:07:00,
2013-02-03 03:11:00,54.4,53.3,30.04,East,98,0.0,0.0,96,0.00,,,0.00,Wunderground v.1.15,2013-02-03 08:11:00,
2013-02-03 03:12:00,54.4,53.3,30.04,East,98,0.0,0.0,96,0.00,,,0.00,Wunderground v.1.15,2013-02-03 08:12:00,
2013-02-03 03:13:00,54.3,53.2,30.04,East,98,0.0,0.0,96,0.00,,,0.00,Wunderground v.1.15,2013-02-03 08:13:00,
2013-02-03 03:16:00,54.3,53.2,30.04,East,98,0.0,0.0,96,0.00,,,0.00,Wunderground v.1.15,2013-02-03 08:16:00,
2013-02-03 03:18:00,54.3,53.2,30.04,East,98,0.0,0.0,96,0.00,,,0.00,Wunderground v.1.15,2013-02-03 08:18:00,
2013-02-03 03:19:00,54.3,53.2,30.04,East,98,0.0,0.0,96,0.00,,,0.00,Wunderground v.1.15,2013-02-03 08:19:00,
2013-02-03 03:21:00,54.4,53.3,30.04,East,98,0.0,0.0,96,0.00,,,0.00,Wunderground v.1.15,2013-02-03 08:21:00,
2013-02-03 03:23:00,54.4,53.3,30.04,East,98,0.0,0.0,96,0.00,,,0.00,Wunderground v.1.15,2013-02-03 08:23:00,
2013-02-03 03:25:00,54.4,53.3,30.04,East,98,0.0,0.0,96,0.00,,,0.00,Wunderground v.1.15,2013-02-03 08:25:00,
2013-02-03 03:27:00,54.4,53.3,30.04,East,98,0.0,0.0,96,0.00,,,0.00,Wunderground v.1.15,2013-02-03 08:27:00,
2013-02-03 03:28:00,54.4,53.3,30.04,East,98,0.0,0.0,96,0.00,,,0.00,Wunderground v.1.15,2013-02-03 08:28:00,
2013-02-03 03:29:00,54.4,53.3,30.04,East,98,0.0,0.0,96,0.00,,,0.00,Wunderground v.1.15,2013-02-03 08:29:00,
2013-02-03 03:31:00,54.3,53.2,30.04,East,98,0.0,0.0,96,0.00,,,0.00,Wunderground v.1.15,2013-02-03 08:31:00,
2013-02-03 03:32:00,54.3,53.2,30.05,East,98,0.0,0.0,96,0.00,,,0.00,Wunderground v.1.15,2013-02-03 08:32:00,
2013-02-03 03:34:00,54.3,53.2,30.05,East,98,0.0,0.0,96,0.00,,,0.00,Wunderground v.1.15,2013-02-03 08:34:00,
2013-02-03 03:36:00,54.2,53.1,30.05,East,98,0.0,0.0,96,0.00,,,0.00,Wunderground v.1.15,2013-02-03 08:36:00,
2013-02-03 03:37:00,54.2,53.1,30.05,East,98,0.0,0.0,96,0.00,,,0.00,Wunderground v.1.15,2013-02-03 08:37:00,
2013-02-03 03:39:00,54.3,53.2,30.05,East,98,0.0,0.0,96,0.00,,,0.00,Wunderground v.1.15,2013-02-03 08:39:00,
2013-02-03 03:40:00,54.4,53.3,30.05,East,98,0.0,0.0,96,0.00,,,0.00,Wunderground v.1.15,2013-02-03 08:40:00,
2013-02-03 03:42:00,54.4,53.3,30.05,East,98,0.0,0.0,96,0.00,,,0.00,Wunderground v.1.15,2013-02-03 08:42:00,
2013-02-03 03:45:00,54.6,53.5,30.05,East,98,0.0,0.0,96,0.00,,,0.00,Wunderground v.1.15,2013-02-03 08:45:00,
2013-02-03 03:47:00,54.9,53.8,30.05,East,98,0.0,0.0,96,0.00,,,0.00,Wunderground v.1.15,2013-02-03 08:47:00,
2013-02-03 03:48:00,55.0,53.9,30.05,East,98,0.0,0.0,96,0.00,,,0.00,Wunderground v.1.15,2013-02-03 08:48:00,
2013-02-03 03:50:00,55.1,54.0,30.05,East,98,0.0,0.0,96,0.00,,,0.00,Wunderground v.1.15,2013-02-03 08:50:00,
2013-02-03 03:53:00,55.3,54.2,30.05,East,98,0.0,0.0,96,0.00,,,0.00,Wunderground v.1.15,2013-02-03 08:53:00,
2013-02-03 03:54:00,55.4,54.3,30.05,East,98,0.0,0.0,96,0.00,,,0.00,Wunderground v.1.15,2013-02-03 08:54:00,
2013-02-03 03:55:00,55.5,54.4,30.05,East,98,0.0,0.0,96,0.00,,,0.00,Wunderground v.1.15,2013-02-03 08:55:00,
2013-02-03 03:58:00,55.7,54.6,30.05,East,98,0.0,0.0,96,0.00,,,0.00,Wunderground v.1.15,2013-02-03 08:58:00,
2013-02-03 03:59:00,55.8,54.7,30.05,East,98,0.0,0.0,96,0.00,,,0.00,Wunderground v.1.15,2013-02-03 08:59:00,
2013-02-03 04:01:00,56.0,54.9,30.05,East,98,0.0,0.0,96,0.00,,,0.00,Wunderground v.1.15,2013-02-03 09:01:00,
2013-02-03 04:03:00,56.1,55.0,30.05,East,98,0.0,0.0,96,0.00,,,0.00,Wunderground v.1.15,2013-02-03 09:03:00,
2013-02-03 04:05:00,56.4,55.3,30.05,East,98,0.0,0.0,96,0.00,,,0.00,Wunderground v.1.15,2013-02-03 09:05:00,
2013-02-03 04:07:00,56.6,55.5,30.05,East,98,0.0,0.0,96,0.00,,,0.00,Wunderground v.1.15,2013-02-03 09:07:00,
2013-02-03 04:08:00,56.7,55.6,30.05,East,98,0.0,0.0,96,0.00,,,0.00,Wunderground v.1.15,2013-02-03 09:08:00,
2013-02-03 04:09:00,56.7,55.6,30.05,East,98,0.0,0.0,96,0.00,,,0.00,Wunderground v.1.15,2013-02-03 09:09:00,
2013-02-03 04:10:00,56.7,55.9,30.05,East,98,0.0,0.0,97,0.00,,,0.00,Wunderground v.1.15,2013-02-03 09:10:00,
2013-02-03 04:13:00,56.8,55.7,30.05,East,94,0.0,0.0,96,0.00,,,0.00,Wunderground v.1.15,2013-02-03 09:13:00,
2013-02-03 04:14:00,56.8,55.7,30.05,East,94,0.0,0.0,96,0.00,,,0.00,Wunderground v.1.15,2013-02-03 09:14:00,
2013-02-03 04:16:00,56.8,55.7,30.05,East,94,0.0,0.0,96,0.00,,,0.00,Wunderground v.1.15,2013-02-03 09:16:00,
2013-02-03 04:19:00,56.8,55.7,30.05,East,94,0.0,0.0,96,0.00,,,0.00,Wunderground v.1.15,2013-02-03 09:19:00,
2013-02-03 04:21:00,56.7,55.6,30.05,East,94,0.0,0.0,96,0.00,,,0.00,Wunderground v.1.15,2013-02-03 09:21:00,
2013-02-03 04:24:00,56.5,55.4,30.05,East,94,0.0,0.0,96,0.00,,,0.00,Wunderground v.1.15,2013-02-03 09:24:00,
2013-02-03 04:25:00,56.5,55.4,30.05,East,94,0.0,0.0,96,0.00,,,0.00,Wunderground v.1.15,2013-02-03 09:25:00,
2013-02-03 04:26:00,56.4,55.3,30.04,East,94,0.0,0.0,96,0.00,,,0.00,Wunderground v.1.15,2013-02-03 09:26:00,
2013-02-03 04:29:00,56.3,55.2,30.04,East,94,0.0,0.0,96,0.00,,,0.00,Wunderground v.1.15,2013-02-03 09:29:00,
2013-02-03 04:30:00,56.3,55.2,30.05,East,94,0.0,0.0,96,0.00,,,0.00,Wunderground v.1.15,2013-02-03 09:30:00,
2013-02-03 04:34:00,56.2,55.1,30.05,East,94,0.0,0.0,96,0.00,,,0.00,Wunderground v.1.15,2013-02-03 09:34:00,
2013-02-03 04:35:00,56.2,55.1,30.05,East,94,0.0,0.0,96,0.00,,,0.00,Wunderground v.1.15,2013-02-03 09:35:00,
2013-02-03 04:36:00,56.2,55.1,30.05,East,94,0.0,0.0,96,0.00,,,0.00,Wunderground v.1.15,2013-02-03 09:36:00,
2013-02-03 04:40:00,56.0,54.9,30.04,East,94,0.0,0.0,96,0.00,,,0.00,Wunderground v.1.15,2013-02-03 09:40:00,
2013-02-03 04:41:00,55.9,54.8,30.04,East,94,0.0,0.0,96,0.00,,,0.00,Wunderground v.1.15,2013-02-03 09:41:00,
2013-02-03 04:42:00,55.9,54.8,30.05,East,94,0.0,0.0,96,0.00,,,0.00,Wunderground v.1.15,2013-02-03 09:42:00,
2013-02-03 04:45:00,55.8,54.7,30.05,East,94,0.0,0.0,96,0.00,,,0.00,Wunderground v.1.15,2013-02-03 09:45:00,
2013-02-03 04:46:00,55.8,54.7,30.05,East,94,0.0,0.0,96,0.00,,,0.00,Wunderground v.1.15,2013-02-03 09:46:00,
2013-02-03 04:47:00,55.7,54.6,30.05,East,94,0.0,0.0,96,0.00,,,0.00,Wunderground v.1.15,2013-02-03 09:47:00,
2013-02-03 04:50:00,55.6,54.5,30.05,East,94,0.0,0.0,96,0.00,,,0.00,Wunderground v.1.15,2013-02-03 09:50:00,
2013-02-03 04:52:00,55.6,54.5,30.05,East,94,0.0,0.0,96,0.00,,,0.00,Wunderground v.1.15,2013-02-03 09:52:00,
2013-02-03 04:55:00,55.5,54.4,30.05,East,94,0.0,0.0,96,0.00,,,0.00,Wunderground v.1.15,2013-02-03 09:55:00,
2013-02-03 04:57:00,55.5,54.4,30.05,East,94,0.0,0.0,96,0.00,,,0.00,Wunderground v.1.15,2013-02-03 09:57:00,
2013-02-03 04:58:00,55.5,54.4,30.05,East,94,0.0,0.0,96,0.00,,,0.00,Wunderground v.1.15,2013-02-03 09:58:00,
2013-02-03 05:00:00,55.4,54.3,30.05,East,94,0.0,0.0,96,0.00,,,0.00,Wunderground v.1.15,2013-02-03 10:00:00,
2013-02-03 05:02:00,55.3,54.2,30.06,East,93,0.0,0.0,96,0.00,,,0.00,Wunderground v.1.15,2013-02-03 10:02:00,
2013-02-03 05:03:00,55.3,54.2,30.06,East,93,0.0,0.0,96,0.00,,,0.00,Wunderground v.1.15,2013-02-03 10:03:00,
2013-02-03 05:06:00,55.2,54.1,30.06,East,93,0.0,0.0,96,0.00,,,0.00,Wunderground v.1.15,2013-02-03 10:06:00,
2013-02-03 05:07:00,55.1,54.0,30.06,East,93,0.0,0.0,96,0.00,,,0.00,Wunderground v.1.15,2013-02-03 10:07:00,
2013-02-03 05:08:00,55.1,54.0,30.06,East,93,0.0,0.0,96,0.00,,,0.00,Wunderground v.1.15,2013-02-03 10:08:00,
2013-02-03 05:09:00,55.0,53.9,30.06,East,93,0.0,0.0,96,0.00,,,0.00,Wunderground v.1.15,2013-02-03 10:09:00,
2013-02-03 05:12:00,54.9,53.8,30.06,East,92,0.0,0.0,96,0.00,,,0.00,Wunderground v.1.15,2013-02-03 10:12:00,
2013-02-03 05:13:00,54.9,53.8,30.06,East,92,0.0,0.0,96,0.00,,,0.00,Wunderground v.1.15,2013-02-03 10:13:00,
2013-02-03 05:14:00,54.8,53.7,30.06,East,92,0.0,0.0,96,0.00,,,0.00,Wunderground v.1.15,2013-02-03 10:14:00,
2013-02-03 05:17:00,54.7,53.6,30.06,East,92,0.0,0.0,96,0.00,,,0.00,Wunderground v.1.15,2013-02-03 10:17:00,
2013-02-03 05:18:00,54.7,53.6,30.06,East,92,0.0,0.0,96,0.00,,,0.00,Wunderground v.1.15,2013-02-03 10:18:00,
2013-02-03 05:19:00,54.7,53.6,30.06,East,92,0.0,0.0,96,0.00,,,0.00,Wunderground v.1.15,2013-02-03 10:19:00,
2013-02-03 05:22:00,54.6,53.5,30.06,East,82,0.0,0.0,96,0.00,,,0.00,Wunderground v.1.15,2013-02-03 10:22:00,
2013-02-03 05:23:00,54.6,53.5,30.06,East,82,0.0,0.0,96,0.00,,,0.00,Wunderground v.1.15,2013-02-03 10:23:00,
2013-02-03 05:24:00,54.6,53.5,30.06,East,82,0.0,0.0,96,0.00,,,0.00,Wunderground v.1.15,2013-02-03 10:24:00,
2013-02-03 05:27:00,54.5,53.4,30.06,East,82,0.0,0.0,96,0.00,,,0.00,Wunderground v.1.15,2013-02-03 10:27:00,
2013-02-03 05:28:00,54.5,53.4,30.06,East,82,0.0,0.0,96,0.00,,,0.00,Wunderground v.1.15,2013-02-03 10:28:00,
2013-02-03 05:29:00,54.5,53.4,30.06,East,82,0.0,0.0,96,0.00,,,0.00,Wunderground v.1.15,2013-02-03 10:29:00,
2013-02-03 05:30:00,54.5,53.4,30.06,East,82,0.0,0.0,96,0.00,,,0.00,Wunderground v.1.15,2013-02-03 10:30:00,
2013-02-03 05:33:00,54.4,53.3,30.06,East,82,0.0,0.0,96,0.00,,,0.00,Wunderground v.1.15,2013-02-03 10:33:00,
2013-02-03 05:34:00,54.4,53.3,30.06,East,82,0.0,0.0,96,0.00,,,0.00,Wunderground v.1.15,2013-02-03 10:34:00,
2013-02-03 05:35:00,54.4,53.3,30.06,East,82,0.0,0.0,96,0.00,,,0.00,Wunderground v.1.15,2013-02-03 10:35:00,
2013-02-03 05:36:00,54.4,53.3,30.06,East,82,0.0,0.0,96,0.00,,,0.00,Wunderground v.1.15,2013-02-03 10:36:00,
2013-02-03 05:38:00,54.4,53.3,30.06,ENE,78,0.0,0.0,96,0.00,,,0.00,Wunderground v.1.15,2013-02-03 10:38:00,
2013-02-03 05:39:00,54.4,53.3,30.06,ENE,78,0.0,0.0,96,0.00,,,0.00,Wunderground v.1.15,2013-02-03 10:39:00,
2013-02-03 05:40:00,54.5,53.4,30.06,ENE,78,0.0,0.0,96,0.00,,,0.00,Wunderground v.1.15,2013-02-03 10:40:00,
2013-02-03 05:42:00,54.5,53.4,30.06,ENE,78,0.0,0.0,96,0.00,,,0.00,Wunderground v.1.15,2013-02-03 10:42:00,
2013-02-03 05:43:00,54.5,53.4,30.07,ENE,78,0.0,0.0,96,0.00,,,0.00,Wunderground v.1.15,2013-02-03 10:43:00,
2013-02-03 05:45:00,54.5,53.4,30.07,ENE,78,0.0,0.0,96,0.00,,,0.00,Wunderground v.1.15,2013-02-03 10:45:00,
2013-02-03 05:47:00,54.5,53.4,30.07,ENE,78,0.0,0.0,96,0.00,,,0.00,Wunderground v.1.15,2013-02-03 10:47:00,
2013-02-03 05:48:00,54.6,53.5,30.07,ENE,78,0.0,0.0,96,0.00,,,0.00,Wunderground v.1.15,2013-02-03 10:48:00,
2013-02-03 05:50:00,54.6,53.5,30.07,ENE,78,0.0,0.0,96,0.00,,,0.00,Wunderground v.1.15,2013-02-03 10:50:00,
2013-02-03 05:51:00,54.5,53.4,30.07,ENE,78,0.0,0.0,96,0.00,,,0.00,Wunderground v.1.15,2013-02-03 10:51:00,
2013-02-03 05:52:00,54.5,53.4,30.07,ENE,78,0.0,0.0,96,0.00,,,0.00,Wunderground v.1.15,2013-02-03 10:52:00,
2013-02-03 05:54:00,54.5,53.4,30.07,ENE,78,0.0,0.0,96,0.00,,,0.00,Wunderground v.1.15,2013-02-03 10:54:00,
2013-02-03 05:55:00,54.5,53.4,30.07,ENE,78,0.0,0.0,96,0.00,,,0.00,Wunderground v.1.15,2013-02-03 10:55:00,
2013-02-03 05:57:00,54.5,53.4,30.07,ENE,78,0.0,0.0,96,0.00,,,0.00,Wunderground v.1.15,2013-02-03 10:57:00,
2013-02-03 05:58:00,54.5,53.4,30.07,ENE,78,0.0,0.0,96,0.00,,,0.00,Wunderground v.1.15,2013-02-03 10:58:00,
2013-02-03 05:59:00,54.5,53.4,30.07,ENE,78,0.0,0.0,96,0.00,,,0.00,Wunderground v.1.15,2013-02-03 10:59:00,
2013-02-03 06:00:00,54.5,53.4,30.07,ENE,76,0.0,0.0,96,0.00,,,0.00,Wunderground v.1.15,2013-02-03 11:00:00,
2013-02-03 06:03:00,54.6,53.2,30.07,ENE,76,0.0,0.0,95,0.00,,,0.00,Wunderground v.1.15,2013-02-03 11:03:00,
2013-02-03 06:04:00,54.6,53.5,30.07,ENE,74,0.0,0.0,96,0.00,,,0.00,Wunderground v.1.15,2013-02-03 11:04:00,
2013-02-03 06:06:00,54.7,53.6,30.07,ENE,74,0.0,0.0,96,0.00,,,0.00,Wunderground v.1.15,2013-02-03 11:06:00,
2013-02-03 06:08:00,54.7,53.6,30.07,NNW,346,0.0,0.0,96,0.00,,,0.00,Wunderground v.1.15,2013-02-03 11:08:00,
2013-02-03 06:09:00,54.8,53.7,30.07,North,350,0.0,0.0,96,0.00,,,0.00,Wunderground v.1.15,2013-02-03 11:09:00,
2013-02-03 06:10:00,54.9,53.8,30.07,NNW,336,0.0,0.0,96,0.00,,,0.00,Wunderground v.1.15,2013-02-03 11:10:00,
2013-02-03 06:12:00,55.0,53.9,30.07,NNW,335,0.0,0.0,96,0.00,,,0.00,Wunderground v.1.15,2013-02-03 11:12:00,
2013-02-03 06:13:00,55.1,54.0,30.07,NNW,335,0.0,0.0,96,0.00,,,0.00,Wunderground v.1.15,2013-02-03 11:13:00,
2013-02-03 06:14:00,55.1,54.0,30.07,NNW,337,0.0,0.0,96,0.00,,,0.00,Wunderground v.1.15,2013-02-03 11:14:00,
2013-02-03 06:15:00,55.2,54.1,30.07,NNW,340,3.0,4.0,96,0.00,,,0.00,Wunderground v.1.15,2013-02-03 11:15:00,
2013-02-03 06:18:00,55.4,54.3,30.08,NNW,340,0.0,4.0,96,0.00,,,0.00,Wunderground v.1.15,2013-02-03 11:18:00,
2013-02-03 06:19:00,55.5,54.4,30.08,NNW,344,0.0,4.0,96,0.00,,,0.00,Wunderground v.1.15,2013-02-03 11:19:00,
2013-02-03 06:20:00,55.6,54.5,30.08,NNW,343,0.0,1.0,96,0.00,,,0.00,Wunderground v.1.15,2013-02-03 11:20:00,
2013-02-03 06:23:00,55.7,54.6,30.08,NNW,343,0.0,6.0,96,0.00,,,0.00,Wunderground v.1.15,2013-02-03 11:23:00,
2013-02-03 06:24:00,55.7,54.6,30.08,NNW,340,0.0,6.0,96,0.00,,,0.00,Wunderground v.1.15,2013-02-03 11:24:00,
2013-02-03 06:25:00,55.8,54.7,30.08,NNW,342,0.0,6.0,96,0.00,,,0.00,Wunderground v.1.15,2013-02-03 11:25:00,
2013-02-03 06:26:00,55.8,54.4,30.08,NNW,342,0.0,6.0,95,0.00,,,0.00,Wunderground v.1.15,2013-02-03 11:26:00,
2013-02-03 06:29:00,55.8,54.4,30.08,NNW,343,0.0,6.0,95,0.00,,,0.00,Wunderground v.1.15,2013-02-03 11:29:00,
2013-02-03 06:31:00,55.9,54.8,30.08,NNW,346,0.0,1.0,96,0.00,,,0.00,Wunderground v.1.15,2013-02-03 11:31:00,
2013-02-03 06:34:00,56.0,54.9,30.08,NNW,331,0.0,1.0,96,0.00,,,0.00,Wunderground v.1.15,2013-02-03 11:34:00,
2013-02-03 06:35:00,56.0,54.9,30.08,NNW,331,0.0,1.0,96,0.00,,,0.00,Wunderground v.1.15,2013-02-03 11:35:00,
2013-02-03 06:36:00,56.0,54.6,30.08,NNW,331,0.0,1.0,95,0.00,,,0.00,Wunderground v.1.15,2013-02-03 11:36:00,
2013-02-03 06:37:00,56.0,54.6,30.08,NNW,331,0.0,1.0,95,0.00,,,0.00,Wunderground v.1.15,2013-02-03 11:37:00,
2013-02-03 06:40:00,56.0,54.6,30.08,North,355,0.0,0.0,95,0.00,,,0.00,Wunderground v.1.15,2013-02-03 11:40:00,
2013-02-03 06:42:00,56.0,54.6,30.08,North,349,0.0,0.0,95,0.00,,,0.00,Wunderground v.1.15,2013-02-03 11:42:00,
2013-02-03 06:45:00,56.1,54.7,30.08,North,351,0.0,0.0,95,0.00,,,0.00,Wunderground v.1.15,2013-02-03 11:45:00,
2013-02-03 06:46:00,56.1,54.7,30.08,North,351,0.0,0.0,95,0.00,,,0.00,Wunderground v.1.15,2013-02-03 11:46:00,
2013-02-03 06:47:00,56.1,54.7,30.08,North,351,0.0,0.0,95,0.00,,,0.00,Wunderground v.1.15,2013-02-03 11:47:00,
2013-02-03 06:48:00,56.1,54.7,30.08,North,351,0.0,0.0,95,0.00,,,0.00,Wunderground v.1.15,2013-02-03 11:48:00,
2013-02-03 06:50:00,56.0,54.6,30.08,North,355,0.0,0.0,95,0.00,,,0.00,Wunderground v.1.15,2013-02-03 11:50:00,
2013-02-03 06:51:00,56.0,54.6,30.09,North,351,0.0,0.0,95,0.00,,,0.00,Wunderground v.1.15,2013-02-03 11:51:00,
2013-02-03 06:52:00,56.0,54.6,30.09,North,351,0.0,0.0,95,0.00,,,0.00,Wunderground v.1.15,2013-02-03 11:52:00,
2013-02-03 06:53:00,56.1,54.7,30.09,North,11,0.0,0.0,95,0.00,,,0.00,Wunderground v.1.15,2013-02-03 11:53:00,
2013-02-03 06:55:00,56.1,54.7,30.09,North,360,0.0,0.0,95,0.00,,,0.00,Wunderground v.1.15,2013-02-03 11:55:00,
2013-02-03 06:57:00,56.1,54.7,30.09,NNW,342,0.0,0.0,95,0.00,,,0.00,Wunderground v.1.15,2013-02-03 11:57:00,
2013-02-03 06:58:00,56.2,54.8,30.09,North,360,0.0,0.0,95,0.00,,,0.00,Wunderground v.1.15,2013-02-03 11:58:00,
2013-02-03 07:01:00,56.1,54.7,30.09,North,360,0.0,0.0,95,0.00,,,0.00,Wunderground v.1.15,2013-02-03 12:01:00,
2013-02-03 07:02:00,56.1,54.7,30.09,North,360,0.0,0.0,95,0.00,,,0.00,Wunderground v.1.15,2013-02-03 12:02:00,
2013-02-03 07:03:00,56.1,54.7,30.09,North,360,0.0,0.0,95,0.00,,,0.00,Wunderground v.1.15,2013-02-03 12:03:00,
2013-02-03 07:04:00,56.0,54.6,30.09,North,355,0.0,0.0,95,0.00,,,0.00,Wunderground v.1.15,2013-02-03 12:04:00,
2013-02-03 07:06:00,55.9,54.5,30.09,North,360,0.0,0.0,95,0.00,,,0.00,Wunderground v.1.15,2013-02-03 12:06:00,
2013-02-03 07:07:00,55.9,54.5,30.09,North,355,0.0,0.0,95,0.00,,,0.00,Wunderground v.1.15,2013-02-03 12:07:00,
2013-02-03 07:08:00,55.9,54.5,30.09,North,355,0.0,0.0,95,0.00,,,0.00,Wunderground v.1.15,2013-02-03 12:08:00,
2013-02-03 07:09:00,55.9,54.5,30.09,North,355,0.0,0.0,95,0.00,,,0.00,Wunderground v.1.15,2013-02-03 12:09:00,
2013-02-03 07:12:00,55.9,54.5,30.09,North,355,0.0,0.0,95,0.00,,,0.00,Wunderground v.1.15,2013-02-03 12:12:00,
2013-02-03 07:13:00,55.9,54.2,30.09,North,355,0.0,0.0,94,0.00,,,0.00,Wunderground v.1.15,2013-02-03 12:13:00,
2013-02-03 07:15:00,55.9,54.5,30.09,North,355,0.0,0.0,95,0.00,,,0.00,Wunderground v.1.15,2013-02-03 12:15:00,
2013-02-03 07:18:00,56.0,54.3,30.10,North,355,0.0,0.0,94,0.00,,,0.00,Wunderground v.1.15,2013-02-03 12:18:00,
2013-02-03 07:19:00,56.0,54.3,30.09,North,355,0.0,0.0,94,0.00,,,0.00,Wunderground v.1.15,2013-02-03 12:19:00,
2013-02-03 07:20:00,56.0,54.3,30.10,NNW,346,0.0,0.0,94,0.00,,,0.00,Wunderground v.1.15,2013-02-03 12:20:00,
2013-02-03 07:23:00,56.2,54.5,30.10,NNW,346,0.0,0.0,94,0.00,,,0.00,Wunderground v.1.15,2013-02-03 12:23:00,
2013-02-03 07:25:00,56.2,54.5,30.10,NNW,344,0.0,0.0,94,0.00,,,0.00,Wunderground v.1.15,2013-02-03 12:25:00,
2013-02-03 07:28:00,56.2,54.2,30.10,NNW,340,0.0,0.0,93,0.00,,,0.00,Wunderground v.1.15,2013-02-03 12:28:00,
2013-02-03 07:30:00,56.3,54.3,30.10,North,355,0.0,0.0,93,0.00,,,0.00,Wunderground v.1.15,2013-02-03 12:30:00,
2013-02-03 07:31:00,56.3,54.3,30.10,North,351,0.0,0.0,93,0.00,,,0.00,Wunderground v.1.15,2013-02-03 12:31:00,
2013-02-03 07:33:00,56.3,54.0,30.10,North,11,0.0,0.0,92,0.00,,,0.00,Wunderground v.1.15,2013-02-03 12:33:00,
2013-02-03 07:34:00,56.3,54.0,30.10,North,11,0.0,0.0,92,0.00,,,0.00,Wunderground v.1.15,2013-02-03 12:34:00,
2013-02-03 07:36:00,56.4,54.1,30.11,NNW,337,0.0,0.0,92,0.00,,,0.00,Wunderground v.1.15,2013-02-03 12:36:00,
2013-02-03 07:39:00,56.5,54.2,30.11,NNW,341,0.0,0.0,92,0.00,,,0.00,Wunderground v.1.15,2013-02-03 12:39:00,
2013-02-03 07:40:00,56.5,54.2,30.10,North,349,0.0,0.0,92,0.00,,,0.00,Wunderground v.1.15,2013-02-03 12:40:00,
2013-02-03 07:41:00,56.5,53.9,30.10,NNW,348,0.0,0.0,91,0.00,,,0.00,Wunderground v.1.15,2013-02-03 12:41:00,
2013-02-03 07:44:00,56.6,54.0,30.11,North,350,0.0,0.0,91,0.00,,,0.00,Wunderground v.1.15,2013-02-03 12:44:00,
2013-02-03 07:45:00,56.6,54.0,30.11,NNW,346,0.0,0.0,91,0.00,,,0.00,Wunderground v.1.15,2013-02-03 12:45:00,
2013-02-03 07:46:00,56.7,54.1,30.11,North,350,0.0,0.0,91,0.00,,,0.00,Wunderground v.1.15,2013-02-03 12:46:00,
2013-02-03 07:50:00,57.5,54.9,30.11,North,355,0.0,0.0,91,0.00,,,0.00,Wunderground v.1.15,2013-02-03 12:50:00,
2013-02-03 07:51:00,57.8,54.9,30.11,North,355,0.0,0.0,90,0.00,,,0.00,Wunderground v.1.15,2013-02-03 12:51:00,
2013-02-03 07:52:00,58.1,55.2,30.11,North,355,0.0,0.0,90,0.00,,,0.00,Wunderground v.1.15,2013-02-03 12:52:00,
2013-02-03 07:55:00,58.7,55.5,30.11,North,355,0.0,0.0,89,0.00,,,0.00,Wunderground v.1.15,2013-02-03 12:55:00,
2013-02-03 07:56:00,58.9,55.7,30.11,North,355,0.0,0.0,89,0.00,,,0.00,Wunderground v.1.15,2013-02-03 12:56:00,
2013-02-03 07:57:00,59.1,55.5,30.11,North,355,0.0,0.0,88,0.00,,,0.00,Wunderground v.1.15,2013-02-03 12:57:00,
2013-02-03 07:58:00,59.4,55.5,30.11,North,355,0.0,0.0,87,0.00,,,0.00,Wunderground v.1.15,2013-02-03 12:58:00,
2013-02-03 08:01:00,59.7,55.5,30.11,North,351,0.0,0.0,86,0.00,,,0.00,Wunderground v.1.15,2013-02-03 13:01:00,
2013-02-03 08:02:00,59.9,55.7,30.11,North,351,0.0,0.0,86,0.00,,,0.00,Wunderground v.1.15,2013-02-03 13:02:00,
2013-02-03 08:04:00,60.0,55.5,30.11,North,351,0.0,0.0,85,0.00,,,0.00,Wunderground v.1.15,2013-02-03 13:04:00,
2013-02-03 08:06:00,60.3,55.8,30.11,North,350,0.0,0.0,85,0.00,,,0.00,Wunderground v.1.15,2013-02-03 13:06:00,
2013-02-03 08:07:00,60.4,55.9,30.11,North,350,0.0,0.0,85,0.00,,,0.00,Wunderground v.1.15,2013-02-03 13:07:00,
2013-02-03 08:08:00,60.5,56.0,30.11,North,350,0.0,0.0,85,0.00,,,0.00,Wunderground v.1.15,2013-02-03 13:08:00,
2013-02-03 08:09:00,60.6,56.1,30.12,NNW,348,0.0,0.0,85,0.00,,,0.00,Wunderground v.1.15,2013-02-03 13:09:00,
2013-02-03 08:11:00,60.8,55.9,30.12,NNW,337,0.0,0.0,84,0.00,,,0.00,Wunderground v.1.15,2013-02-03 13:11:00,
2013-02-03 08:12:00,60.9,55.7,30.12,NNW,337,0.0,0.0,83,0.00,,,0.00,Wunderground v.1.15,2013-02-03 13:12:00,
2013-02-03 08:13:00,61.1,55.9,30.12,NNW,337,0.0,0.0,83,0.00,,,0.00,Wunderground v.1.15,2013-02-03 13:13:00,
2013-02-03 08:14:00,61.4,56.2,30.12,NNW,331,0.0,0.0,83,0.00,,,0.00,Wunderground v.1.15,2013-02-03 13:14:00,
2013-02-03 08:17:00,61.8,56.2,30.12,NNW,337,0.0,0.0,82,0.00,,,0.00,Wunderground v.1.15,2013-02-03 13:17:00,
2013-02-03 08:18:00,61.8,56.2,30.12,NNW,337,0.0,0.0,82,0.00,,,0.00,Wunderground v.1.15,2013-02-03 13:18:00,
2013-02-03 08:19:00,61.7,55.8,30.12,NNW,335,0.0,0.0,81,0.00,,,0.00,Wunderground v.1.15,2013-02-03 13:19:00,
2013-02-03 08:22:00,61.9,56.0,30.12,NNW,331,0.0,0.0,81,0.00,,,0.00,Wunderground v.1.15,2013-02-03 13:22:00,
2013-02-03 08:23:00,61.9,55.7,30.12,NNW,327,0.0,0.0,80,0.00,,,0.00,Wunderground v.1.15,2013-02-03 13:23:00,
2013-02-03 08:24:00,62.1,55.9,30.12,NNW,335,0.0,0.0,80,0.00,,,0.00,Wunderground v.1.15,2013-02-03 13:24:00,
2013-02-03 08:27:00,62.5,55.9,30.12,NNW,329,0.0,0.0,79,0.00,,,0.00,Wunderground v.1.15,2013-02-03 13:27:00,
2013-02-03 08:28:00,62.7,56.8,30.12,NNW,329,0.0,0.0,81,0.00,,,0.00,Wunderground v.1.15,2013-02-03 13:28:00,
2013-02-03 08:31:00,62.9,55.2,30.12,NW,319,1.0,6.0,76,0.00,,,0.00,Wunderground v.1.15,2013-02-03 13:31:00,
2013-02-03 08:32:00,63.0,55.3,30.13,NW,326,0.0,6.0,76,0.00,,,0.00,Wunderground v.1.15,2013-02-03 13:32:00,
2013-02-03 08:34:00,63.0,54.6,30.13,NNE,17,0.0,7.0,74,0.00,,,0.00,Wunderground v.1.15,2013-02-03 13:34:00,
2013-02-03 08:35:00,63.0,54.6,30.13,North,355,6.0,7.0,74,0.00,,,0.00,Wunderground v.1.15,2013-02-03 13:35:00,
2013-02-03 08:37:00,63.0,54.2,30.13,NNW,338,5.0,8.0,73,0.00,,,0.00,Wunderground v.1.15,2013-02-03 13:37:00,
2013-02-03 08:38:00,63.1,54.3,30.13,North,355,8.0,8.0,73,0.00,,,0.00,Wunderground v.1.15,2013-02-03 13:38:00,
2013-02-03 08:39:00,63.2,54.0,30.13,North,355,0.0,3.0,72,0.00,,,0.00,Wunderground v.1.15,2013-02-03 13:39:00,
2013-02-03 08:40:00,63.2,54.0,30.13,NNW,348,2.0,3.0,72,0.00,,,0.00,Wunderground v.1.15,2013-02-03 13:40:00,
2013-02-03 08:42:00,63.6,54.4,30.13,North,355,0.0,7.0,72,0.00,,,0.00,Wunderground v.1.15,2013-02-03 13:42:00,
2013-02-03 08:45:00,63.8,55.0,30.13,NNW,332,0.0,8.0,73,0.00,,,0.00,Wunderground v.1.15,2013-02-03 13:45:00,
2013-02-03 08:48:00,64.0,55.2,30.13,NNW,345,2.0,8.0,73,0.00,,,0.00,Wunderground v.1.15,2013-02-03 13:48:00,
2013-02-03 08:50:00,64.1,54.9,30.13,NNW,346,6.0,8.0,72,0.00,,,0.00,Wunderground v.1.15,2013-02-03 13:50:00,
2013-02-03 08:51:00,64.1,54.9,30.13,NNW,344,0.0,8.0,72,0.00,,,0.00,Wunderground v.1.15,2013-02-03 13:51:00,
2013-02-03 08:53:00,64.1,54.5,30.13,NNW,347,0.0,8.0,71,0.00,,,0.00,Wunderground v.1.15,2013-02-03 13:53:00,
2013-02-03 08:56:00,64.3,54.7,30.13,NNW,329,5.0,8.0,71,0.00,,,0.00,Wunderground v.1.15,2013-02-03 13:56:00,
2013-02-03 08:58:00,64.3,54.3,30.13,NNW,340,0.0,8.0,70,0.00,,,0.00,Wunderground v.1.15,2013-02-03 13:58:00,
2013-02-03 09:01:00,64.5,54.5,30.13,NNW,331,8.0,8.0,70,0.00,,,0.00,Wunderground v.1.15,2013-02-03 14:01:00,
2013-02-03 09:02:00,64.5,54.1,30.13,NW,323,2.0,8.0,69,0.00,,,0.00,Wunderground v.1.15,2013-02-03 14:02:00,
2013-02-03 09:03:00,64.5,53.7,30.14,NW,324,6.0,8.0,68,0.00,,,0.00,Wunderground v.1.15,2013-02-03 14:03:00,
2013-02-03 09:06:00,64.6,53.8,30.14,NNW,344,1.0,8.0,68,0.00,,,0.00,Wunderground v.1.15,2013-02-03 14:06:00,
2013-02-03 09:07:00,64.6,54.2,30.14,North,360,1.0,8.0,69,0.00,,,0.00,Wunderground v.1.15,2013-02-03 14:07:00,
2013-02-03 09:08:00,64.8,54.0,30.13,NW,326,11.0,11.0,68,0.00,,,0.00,Wunderground v.1.15,2013-02-03 14:08:00,
2013-02-03 09:11:00,65.0,54.2,30.13,North,360,1.0,6.0,68,0.00,,,0.00,Wunderground v.1.15,2013-02-03 14:11:00,
2013-02-03 09:12:00,65.1,54.3,30.13,NNW,336,0.0,6.0,68,0.00,,,0.00,Wunderground v.1.15,2013-02-03 14:12:00,
2013-02-03 09:13:00,65.2,54.4,30.13,NNW,329,4.0,6.0,68,0.00,,,0.00,Wunderground v.1.15,2013-02-03 14:13:00,
2013-02-03 09:14:00,65.3,54.5,30.14,NW,325,6.0,8.0,68,0.00,,,0.00,Wunderground v.1.15,2013-02-03 14:14:00,
2013-02-03 09:17:00,65.7,54.8,30.14,NW,325,4.0,8.0,68,0.00,,,0.00,Wunderground v.1.15,2013-02-03 14:17:00,
2013-02-03 09:18:00,65.8,54.5,30.14,NW,325,9.0,9.0,67,0.00,,,0.00,Wunderground v.1.15,2013-02-03 14:18:00,
2013-02-03 09:19:00,65.9,54.6,30.14,NNW,340,0.0,3.0,67,0.00,,,0.00,Wunderground v.1.15,2013-02-03 14:19:00,
2013-02-03 09:23:00,66.5,55.2,30.14,NNE,13,1.0,7.0,67,0.00,,,0.00,Wunderground v.1.15,2013-02-03 14:23:00,
2013-02-03 09:25:00,66.7,55.0,30.14,NNW,342,0.0,7.0,66,0.00,,,0.00,Wunderground v.1.15,2013-02-03 14:25:00,
2013-02-03 09:28:00,67.1,55.8,30.14,NNW,341,1.0,7.0,67,0.00,,,0.00,Wunderground v.1.15,2013-02-03 14:28:00,
2013-02-03 09:29:00,67.2,55.5,30.14,North,349,4.0,7.0,66,0.00,,,0.00,Wunderground v.1.15,2013-02-03 14:29:00,
2013-02-03 09:31:00,67.6,55.8,30.14,WNW,300,5.0,5.0,66,0.00,,,0.00,Wunderground v.1.15,2013-02-03 14:31:00,
2013-02-03 09:33:00,67.7,55.5,30.14,NW,321,7.0,7.0,65,0.00,,,0.00,Wunderground v.1.15,2013-02-03 14:33:00,
2013-02-03 09:34:00,67.7,55.5,30.14,NW,325,0.0,7.0,65,0.00,,,0.00,Wunderground v.1.15,2013-02-03 14:34:00,
2013-02-03 09:36:00,67.8,55.6,30.14,NNW,344,4.0,7.0,65,0.00,,,0.00,Wunderground v.1.15,2013-02-03 14:36:00,
2013-02-03 09:38:00,67.7,54.6,30.14,NNW,342,5.0,8.0,63,0.00,,,0.00,Wunderground v.1.15,2013-02-03 14:38:00,
2013-02-03 09:39:00,67.7,54.2,30.14,NNW,333,2.0,3.0,62,0.00,,,0.00,Wunderground v.1.15,2013-02-03 14:39:00,
2013-02-03 09:40:00,67.6,54.6,30.14,North,5,5.0,5.0,63,0.00,,,0.00,Wunderground v.1.15,2013-02-03 14:40:00,
2013-02-03 09:42:00,67.4,54.4,30.14,NNW,340,0.0,9.0,63,0.00,,,0.00,Wunderground v.1.15,2013-02-03 14:42:00,
2013-02-03 09:44:00,67.4,54.4,30.14,NNW,338,1.0,9.0,63,0.00,,,0.00,Wunderground v.1.15,2013-02-03 14:44:00,
2013-02-03 09:45:00,67.4,54.4,30.14,NW,319,4.0,9.0,63,0.00,,,0.00,Wunderground v.1.15,2013-02-03 14:45:00,
2013-02-03 09:47:00,67.5,54.0,30.14,NW,325,2.0,10.0,62,0.00,,,0.00,Wunderground v.1.15,2013-02-03 14:47:00,
2013-02-03 09:49:00,67.6,54.6,30.14,NNE,12,10.0,10.0,63,0.00,,,0.00,Wunderground v.1.15,2013-02-03 14:49:00,
2013-02-03 09:50:00,67.7,54.6,30.14,NW,313,3.0,10.0,63,0.00,,,0.00,Wunderground v.1.15,2013-02-03 14:50:00,
2013-02-03 09:52:00,67.9,55.7,30.14,NNE,21,7.0,10.0,65,0.00,,,0.00,Wunderground v.1.15,2013-02-03 14:52:00,
2013-02-03 09:54:00,68.1,55.5,30.14,NNW,341,1.0,10.0,64,0.00,,,0.00,Wunderground v.1.15,2013-02-03 14:54:00,
2013-02-03 09:55:00,68.1,55.5,30.14,NNW,327,2.0,10.0,64,0.00,,,0.00,Wunderground v.1.15,2013-02-03 14:55:00,
2013-02-03 09:57:00,68.3,55.6,30.14,NNW,334,0.0,10.0,64,0.00,,,0.00,Wunderground v.1.15,2013-02-03 14:57:00,
2013-02-03 10:00:00,68.5,55.8,30.14,NW,326,8.0,8.0,64,0.00,,,0.00,Wunderground v.1.15,2013-02-03 15:00:00,
2013-02-03 10:01:00,68.7,55.6,30.14,NW,321,0.0,8.0,63,0.00,,,0.00,Wunderground v.1.15,2013-02-03 15:01:00,
2013-02-03 10:02:00,68.8,55.2,30.14,NNW,340,0.0,8.0,62,0.00,,,0.00,Wunderground v.1.15,2013-02-03 15:02:00,
2013-02-03 10:05:00,68.9,55.3,30.14,NNW,332,1.0,8.0,62,0.00,,,0.00,Wunderground v.1.15,2013-02-03 15:05:00,
2013-02-03 10:06:00,69.0,56.3,30.14,North,9,9.0,9.0,64,0.00,,,0.00,Wunderground v.1.15,2013-02-03 15:06:00,
2013-02-03 10:08:00,69.2,55.6,30.14,North,360,2.0,9.0,62,0.00,,,0.00,Wunderground v.1.15,2013-02-03 15:08:00,
2013-02-03 10:10:00,69.2,54.7,30.14,NNE,29,0.0,7.0,60,0.00,,,0.00,Wunderground v.1.15,2013-02-03 15:10:00,
2013-02-03 10:12:00,69.3,55.7,30.14,NNW,337,3.0,7.0,62,0.00,,,0.00,Wunderground v.1.15,2013-02-03 15:12:00,
2013-02-03 10:13:00,69.4,55.8,30.14,North,5,4.0,7.0,62,0.00,,,0.00,Wunderground v.1.15,2013-02-03 15:13:00,
2013-02-03 10:15:00,69.5,55.5,30.14,North,355,0.0,7.0,61,0.00,,,0.00,Wunderground v.1.15,2013-02-03 15:15:00,
2013-02-03 10:16:00,69.5,55.5,30.14,NNW,342,2.0,7.0,61,0.00,,,0.00,Wunderground v.1.15,2013-02-03 15:16:00,
2013-02-03 10:17:00,69.5,55.5,30.14,NNW,327,0.0,7.0,61,0.00,,,0.00,Wunderground v.1.15,2013-02-03 15:17:00,
2013-02-03 10:19:00,70.1,56.9,30.14,NNW,347,2.0,7.0,63,0.00,,,0.00,Wunderground v.1.15,2013-02-03 15:19:00,
2013-02-03 10:21:00,70.4,56.3,30.14,North,360,7.0,10.0,61,0.00,,,0.00,Wunderground v.1.15,2013-02-03 15:21:00,
2013-02-03 10:23:00,70.4,55.8,30.14,NNE,15,2.0,10.0,60,0.00,,,0.00,Wunderground v.1.15,2013-02-03 15:23:00,
2013-02-03 10:24:00,70.2,55.7,30.14,ENE,57,0.0,10.0,60,0.00,,,0.00,Wunderground v.1.15,2013-02-03 15:24:00,
2013-02-03 10:26:00,70.1,55.1,30.14,North,355,2.0,10.0,59,0.00,,,0.00,Wunderground v.1.15,2013-02-03 15:26:00,
2013-02-03 10:27:00,70.0,55.5,30.14,North,360,1.0,10.0,60,0.00,,,0.00,Wunderground v.1.15,2013-02-03 15:27:00,
2013-02-03 10:28:00,70.1,56.0,30.14,WNW,302,9.0,10.0,61,0.00,,,0.00,Wunderground v.1.15,2013-02-03 15:28:00,
2013-02-03 10:30:00,70.2,56.1,30.14,North,351,0.0,3.0,61,0.00,,,0.00,Wunderground v.1.15,2013-02-03 15:30:00,
2013-02-03 10:31:00,70.4,56.3,30.14,NW,306,2.0,3.0,61,0.00,,,0.00,Wunderground v.1.15,2013-02-03 15:31:00,
2013-02-03 10:33:00,70.8,56.7,30.14,NNW,336,4.0,5.0,61,0.00,,,0.00,Wunderground v.1.15,2013-02-03 15:33:00,
2013-02-03 10:35:00,70.9,55.4,30.14,North,355,8.0,9.0,58,0.00,,,0.00,Wunderground v.1.15,2013-02-03 15:35:00,
2013-02-03 10:36:00,70.8,54.8,30.14,NNW,329,6.0,9.0,57,0.00,,,0.00,Wunderground v.1.15,2013-02-03 15:36:00,
2013-02-03 10:38:00,70.8,55.8,30.14,NNW,343,8.0,9.0,59,0.00,,,0.00,Wunderground v.1.15,2013-02-03 15:38:00,
2013-02-03 10:41:00,70.6,55.1,30.13,North,5,4.0,9.0,58,0.00,,,0.00,Wunderground v.1.15,2013-02-03 15:41:00,
2013-02-03 10:43:00,70.6,55.6,30.13,North,350,0.0,9.0,59,0.00,,,0.00,Wunderground v.1.15,2013-02-03 15:43:00,
2013-02-03 10:44:00,70.8,56.7,30.13,North,360,0.0,9.0,61,0.00,,,0.00,Wunderground v.1.15,2013-02-03 15:44:00,
2013-02-03 10:46:00,71.4,56.8,30.13,NNW,328,5.0,9.0,60,0.00,,,0.00,Wunderground v.1.15,2013-02-03 15:46:00,
2013-02-03 10:47:00,71.5,56.4,30.13,North,350,3.0,9.0,59,0.00,,,0.00,Wunderground v.1.15,2013-02-03 15:47:00,
2013-02-03 10:49:00,71.7,56.1,30.13,NW,325,0.0,9.0,58,0.00,,,0.00,Wunderground v.1.15,2013-02-03 15:49:00,
2013-02-03 10:50:00,71.8,56.2,30.13,NW,315,4.0,6.0,58,0.00,,,0.00,Wunderground v.1.15,2013-02-03 15:50:00,
2013-02-03 10:52:00,71.9,56.8,30.13,NNW,328,0.0,6.0,59,0.00,,,0.00,Wunderground v.1.15,2013-02-03 15:52:00,
2013-02-03 10:54:00,72.0,56.4,30.13,NNW,348,0.0,8.0,58,0.00,,,0.00,Wunderground v.1.15,2013-02-03 15:54:00,
2013-02-03 10:55:00,72.0,56.9,30.13,NW,320,0.0,8.0,59,0.00,,,0.00,Wunderground v.1.15,2013-02-03 15:55:00,
2013-02-03 10:57:00,72.0,55.9,30.13,NNW,328,0.0,8.0,57,0.00,,,0.00,Wunderground v.1.15,2013-02-03 15:57:00,
2013-02-03 10:59:00,72.5,57.4,30.13,North,355,0.0,8.0,59,0.00,,,0.00,Wunderground v.1.15,2013-02-03 15:59:00,
2013-02-03 11:00:00,72.8,57.6,30.13,NW,323,1.0,2.0,59,0.00,,,0.00,Wunderground v.1.15,2013-02-03 16:00:00,
2013-02-03 11:02:00,73.1,57.9,30.13,North,360,7.0,7.0,59,0.00,,,0.00,Wunderground v.1.15,2013-02-03 16:02:00,
2013-02-03 11:05:00,73.1,57.0,30.13,NNW,337,0.0,8.0,57,0.00,,,0.00,Wunderground v.1.15,2013-02-03 16:05:00,
2013-02-03 11:07:00,72.9,56.8,30.13,NNE,15,1.0,8.0,57,0.00,,,0.00,Wunderground v.1.15,2013-02-03 16:07:00,
2013-02-03 11:10:00,72.8,57.6,30.13,NNW,345,0.0,4.0,59,0.00,,,0.00,Wunderground v.1.15,2013-02-03 16:10:00,
2013-02-03 11:13:00,73.4,57.7,30.13,NW,319,0.0,8.0,58,0.00,,,0.00,Wunderground v.1.15,2013-02-03 16:13:00,
2013-02-03 11:14:00,73.5,57.3,30.12,NNW,338,1.0,8.0,57,0.00,,,0.00,Wunderground v.1.15,2013-02-03 16:14:00,
2013-02-03 11:15:00,73.3,56.2,30.12,NNE,19,1.0,8.0,55,0.00,,,0.00,Wunderground v.1.15,2013-02-03 16:15:00,
2013-02-03 11:16:00,73.1,56.0,30.12,NNE,26,2.0,8.0,55,0.00,,,0.00,Wunderground v.1.15,2013-02-03 16:16:00,
2013-02-03 11:18:00,72.6,56.0,30.12,NNW,329,6.0,8.0,56,0.00,,,0.00,Wunderground v.1.15,2013-02-03 16:18:00,
2013-02-03 11:19:00,72.6,57.0,30.13,WNW,282,4.0,8.0,58,0.00,,,0.00,Wunderground v.1.15,2013-02-03 16:19:00,
2013-02-03 11:21:00,72.6,56.0,30.12,NW,317,0.0,8.0,56,0.00,,,0.00,Wunderground v.1.15,2013-02-03 16:21:00,
2013-02-03 11:23:00,73.0,57.3,30.12,NNW,330,8.0,8.0,58,0.00,,,0.00,Wunderground v.1.15,2013-02-03 16:23:00,
2013-02-03 11:25:00,73.2,57.1,30.12,North,5,0.0,8.0,57,0.00,,,0.00,Wunderground v.1.15,2013-02-03 16:25:00,
2013-02-03 11:26:00,73.1,56.5,30.12,North,360,0.0,8.0,56,0.00,,,0.00,Wunderground v.1.15,2013-02-03 16:26:00,
2013-02-03 11:27:00,73.1,56.5,30.12,NNW,348,0.0,8.0,56,0.00,,,0.00,Wunderground v.1.15,2013-02-03 16:27:00,
2013-02-03 11:29:00,73.0,57.3,30.12,NNW,333,0.0,8.0,58,0.00,,,0.00,Wunderground v.1.15,2013-02-03 16:29:00,
2013-02-03 11:31:00,73.2,56.1,30.12,North,350,0.0,6.0,55,0.00,,,0.00,Wunderground v.1.15,2013-02-03 16:31:00,
2013-02-03 11:32:00,73.2,56.6,30.12,North,350,0.0,6.0,56,0.00,,,0.00,Wunderground v.1.15,2013-02-03 16:32:00,
2013-02-03 11:34:00,73.6,57.9,30.12,North,355,6.0,6.0,58,0.00,,,0.00,Wunderground v.1.15,2013-02-03 16:34:00,
2013-02-03 11:36:00,73.5,56.8,30.12,NNW,342,4.0,7.0,56,0.00,,,0.00,Wunderground v.1.15,2013-02-03 16:36:00,
2013-02-03 11:37:00,73.5,56.8,30.12,North,355,1.0,7.0,56,0.00,,,0.00,Wunderground v.1.15,2013-02-03 16:37:00,
2013-02-03 11:39:00,73.4,57.7,30.11,NW,323,5.0,6.0,58,0.00,,,0.00,Wunderground v.1.15,2013-02-03 16:39:00,
2013-02-03 11:42:00,73.7,56.5,30.11,NNE,21,1.0,6.0,55,0.00,,,0.00,Wunderground v.1.15,2013-02-03 16:42:00,
2013-02-03 11:43:00,73.8,57.1,30.11,NNE,18,0.0,6.0,56,0.00,,,0.00,Wunderground v.1.15,2013-02-03 16:43:00,
2013-02-03 11:46:00,74.1,57.4,30.11,NW,313,0.0,6.0,56,0.00,,,0.00,Wunderground v.1.15,2013-02-03 16:46:00,
2013-02-03 11:48:00,74.2,57.5,30.11,NW,321,4.0,7.0,56,0.00,,,0.00,Wunderground v.1.15,2013-02-03 16:48:00,
2013-02-03 11:49:00,74.2,57.0,30.11,North,360,1.0,7.0,55,0.00,,,0.00,Wunderground v.1.15,2013-02-03 16:49:00,
2013-02-03 11:52:00,73.6,56.4,30.11,NNE,15,0.0,11.0,55,0.00,,,0.00,Wunderground v.1.15,2013-02-03 16:52:00,
2013-02-03 11:53:00,73.5,57.3,30.10,North,360,4.0,11.0,57,0.00,,,0.00,Wunderground v.1.15,2013-02-03 16:53:00,
2013-02-03 11:54:00,73.5,56.3,30.11,NNW,332,6.0,11.0,55,0.00,,,0.00,Wunderground v.1.15,2013-02-03 16:54:00,
2013-02-03 11:55:00,73.5,56.8,30.11,NW,323,4.0,11.0,56,0.00,,,0.00,Wunderground v.1.15,2013-02-03 16:55:00,
2013-02-03 11:57:00,73.5,57.8,30.11,NNW,342,0.0,11.0,58,0.00,,,0.00,Wunderground v.1.15,2013-02-03 16:57:00,
2013-02-03 11:59:00,73.7,58.0,30.10,North,5,1.0,3.0,58,0.00,,,0.00,Wunderground v.1.15,2013-02-03 16:59:00,
2013-02-03 12:00:00,73.7,57.5,30.10,North,355,1.0,5.0,57,0.00,,,0.00,Wunderground v.1.15,2013-02-03 17:00:00,
2013-02-03 12:02:00,73.5,56.8,30.10,NNW,346,1.0,6.0,56,0.00,,,0.00,Wunderground v.1.15,2013-02-03 17:02:00,
2013-02-03 12:05:00,73.8,57.6,30.10,NNW,346,0.0,6.0,57,0.00,,,0.00,Wunderground v.1.15,2013-02-03 17:05:00,
2013-02-03 12:06:00,74.0,57.8,30.10,North,360,1.0,6.0,57,0.00,,,0.00,Wunderground v.1.15,2013-02-03 17:06:00,
2013-02-03 12:08:00,74.2,57.5,30.10,North,355,7.0,8.0,56,0.00,,,0.00,Wunderground v.1.15,2013-02-03 17:08:00,
2013-02-03 12:11:00,74.2,57.0,30.10,North,350,2.0,8.0,55,0.00,,,0.00,Wunderground v.1.15,2013-02-03 17:11:00,
2013-02-03 12:12:00,74.1,56.4,30.10,NNW,329,5.0,8.0,54,0.00,,,0.00,Wunderground v.1.15,2013-02-03 17:12:00,
2013-02-03 12:14:00,73.9,56.2,30.10,NW,317,2.0,8.0,54,0.00,,,0.00,Wunderground v.1.15,2013-02-03 17:14:00,
2013-02-03 12:17:00,74.4,57.2,30.10,NW,324,0.0,8.0,55,0.00,,,0.00,Wunderground v.1.15,2013-02-03 17:17:00,
2013-02-03 12:18:00,74.7,58.0,30.10,NW,314,4.0,8.0,56,0.00,,,0.00,Wunderground v.1.15,2013-02-03 17:18:00,
2013-02-03 12:20:00,75.0,56.7,30.10,North,9,0.0,8.0,53,0.00,,,0.00,Wunderground v.1.15,2013-02-03 17:20:00,
2013-02-03 12:22:00,74.9,57.6,30.09,NNW,342,0.0,8.0,55,0.00,,,0.00,Wunderground v.1.15,2013-02-03 17:22:00,
2013-02-03 12:23:00,74.9,56.6,30.09,NNW,340,0.0,8.0,53,0.00,,,0.00,Wunderground v.1.15,2013-02-03 17:23:00,
2013-02-03 12:26:00,74.8,55.5,30.09,NNW,334,0.0,10.0,51,0.00,,,0.00,Wunderground v.1.15,2013-02-03 17:26:00,
2013-02-03 12:27:00,74.7,55.4,30.09,NW,310,2.0,10.0,51,0.00,,,0.00,Wunderground v.1.15,2013-02-03 17:27:00,
2013-02-03 12:28:00,74.6,55.8,30.09,NNW,337,4.0,10.0,52,0.00,,,0.00,Wunderground v.1.15,2013-02-03 17:28:00,
2013-02-03 12:32:00,74.3,55.0,30.09,ENE,65,4.0,6.0,51,0.00,,,0.00,Wunderground v.1.15,2013-02-03 17:32:00,
2013-02-03 12:33:00,73.7,55.5,30.09,NNE,23,0.0,6.0,53,0.00,,,0.00,Wunderground v.1.15,2013-02-03 17:33:00,
2013-02-03 12:34:00,73.6,55.9,30.09,NNE,23,0.0,6.0,54,0.00,,,0.00,Wunderground v.1.15,2013-02-03 17:34:00,
2013-02-03 12:37:00,74.0,55.8,30.09,NW,323,0.0,6.0,53,0.00,,,0.00,Wunderground v.1.15,2013-02-03 17:37:00,
2013-02-03 12:38:00,74.0,55.8,30.09,NNW,340,3.0,6.0,53,0.00,,,0.00,Wunderground v.1.15,2013-02-03 17:38:00,
2013-02-03 12:39:00,74.2,56.0,30.09,North,355,4.0,6.0,53,0.00,,,0.00,Wunderground v.1.15,2013-02-03 17:39:00,
2013-02-03 12:43:00,74.7,56.4,30.09,North,350,4.0,8.0,53,0.00,,,0.00,Wunderground v.1.15,2013-02-03 17:43:00,
2013-02-03 12:44:00,74.7,55.9,30.08,North,360,1.0,8.0,52,0.00,,,0.00,Wunderground v.1.15,2013-02-03 17:44:00,
2013-02-03 12:45:00,74.7,55.4,30.08,North,350,5.0,8.0,51,0.00,,,0.00,Wunderground v.1.15,2013-02-03 17:45:00,
2013-02-03 12:48:00,74.2,56.0,30.08,NNW,347,0.0,8.0,53,0.00,,,0.00,Wunderground v.1.15,2013-02-03 17:48:00,
2013-02-03 12:49:00,74.4,57.2,30.08,NNW,340,0.0,8.0,55,0.00,,,0.00,Wunderground v.1.15,2013-02-03 17:49:00,
2013-02-03 12:51:00,75.0,56.7,30.08,NNW,338,2.0,2.0,53,0.00,,,0.00,Wunderground v.1.15,2013-02-03 17:51:00,
2013-02-03 12:53:00,74.9,55.6,30.08,NNW,338,0.0,2.0,51,0.00,,,0.00,Wunderground v.1.15,2013-02-03 17:53:00,
2013-02-03 12:54:00,75.0,56.7,30.08,NW,315,0.0,2.0,53,0.00,,,0.00,Wunderground v.1.15,2013-02-03 17:54:00,
2013-02-03 12:56:00,75.1,56.8,30.08,North,9,2.0,6.0,53,0.00,,,0.00,Wunderground v.1.15,2013-02-03 17:56:00,
2013-02-03 12:58:00,75.2,55.3,30.07,NW,325,0.0,6.0,50,0.00,,,0.00,Wunderground v.1.15,2013-02-03 17:58:00,
2013-02-03 12:59:00,75.2,55.3,30.07,NW,326,4.0,6.0,50,0.00,,,0.00,Wunderground v.1.15,2013-02-03 17:59:00,
2013-02-03 13:00:00,75.1,55.7,30.07,North,351,7.0,7.0,51,0.00,,,0.00,Wunderground v.1.15,2013-02-03 18:00:00,
2013-02-03 13:01:00,74.8,54.4,30.07,North,9,0.0,7.0,49,0.00,,,0.00,Wunderground v.1.15,2013-02-03 18:01:00,
2013-02-03 13:04:00,74.2,54.4,30.07,NNE,29,0.0,7.0,50,0.00,,,0.00,Wunderground v.1.15,2013-02-03 18:04:00,
2013-02-03 13:05:00,74.1,55.3,30.07,North,355,7.0,7.0,52,0.00,,,0.00,Wunderground v.1.15,2013-02-03 18:05:00,
2013-02-03 13:07:00,74.3,53.9,30.07,North,10,4.0,10.0,49,0.00,,,0.00,Wunderground v.1.15,2013-02-03 18:07:00,
2013-02-03 13:09:00,74.1,54.3,30.07,NNE,13,4.0,10.0,50,0.00,,,0.00,Wunderground v.1.15,2013-02-03 18:09:00,
2013-02-03 13:10:00,74.1,54.8,30.07,NNW,342,0.0,5.0,51,0.00,,,0.00,Wunderground v.1.15,2013-02-03 18:10:00,
2013-02-03 13:11:00,74.3,55.5,30.06,NNW,336,0.0,5.0,52,0.00,,,0.00,Wunderground v.1.15,2013-02-03 18:11:00,
2013-02-03 13:13:00,74.5,55.7,30.06,NW,318,0.0,5.0,52,0.00,,,0.00,Wunderground v.1.15,2013-02-03 18:13:00,
2013-02-03 13:14:00,74.7,54.3,30.06,NNW,331,2.0,5.0,49,0.00,,,0.00,Wunderground v.1.15,2013-02-03 18:14:00,
2013-02-03 13:15:00,74.8,54.9,30.06,NNW,348,5.0,7.0,50,0.00,,,0.00,Wunderground v.1.15,2013-02-03 18:15:00,
2013-02-03 13:17:00,75.0,53.4,30.06,NW,323,7.0,8.0,47,0.00,,,0.00,Wunderground v.1.15,2013-02-03 18:17:00,
2013-02-03 13:18:00,75.0,52.2,30.06,NNW,330,9.0,11.0,45,0.00,,,0.00,Wunderground v.1.15,2013-02-03 18:18:00,
2013-02-03 13:20:00,74.8,52.0,30.06,NNE,17,3.0,9.0,45,0.00,,,0.00,Wunderground v.1.15,2013-02-03 18:20:00,
2013-02-03 13:22:00,74.5,52.9,30.06,North,355,2.0,9.0,47,0.00,,,0.00,Wunderground v.1.15,2013-02-03 18:22:00,
2013-02-03 13:23:00,74.4,51.1,30.06,North,5,5.0,10.0,44,0.00,,,0.00,Wunderground v.1.15,2013-02-03 18:23:00,
2013-02-03 13:25:00,74.2,50.3,30.06,North,5,9.0,10.0,43,0.00,,,0.00,Wunderground v.1.15,2013-02-03 18:25:00,
2013-02-03 13:27:00,74.1,50.8,30.06,North,360,0.0,10.0,44,0.00,,,0.00,Wunderground v.1.15,2013-02-03 18:27:00,
2013-02-03 13:29:00,74.3,51.6,30.06,North,5,0.0,10.0,45,0.00,,,0.00,Wunderground v.1.15,2013-02-03 18:29:00,
2013-02-03 13:31:00,74.3,51.6,30.06,North,5,5.0,10.0,45,0.00,,,0.00,Wunderground v.1.15,2013-02-03 18:31:00,
2013-02-03 13:32:00,74.1,52.0,30.05,North,5,0.0,10.0,46,0.00,,,0.00,Wunderground v.1.15,2013-02-03 18:32:00,
2013-02-03 13:34:00,74.3,53.3,30.05,NNE,30,0.0,10.0,48,0.00,,,0.00,Wunderground v.1.15,2013-02-03 18:34:00,
2013-02-03 13:36:00,74.4,54.5,30.05,NW,312,0.0,10.0,50,0.00,,,0.00,Wunderground v.1.15,2013-02-03 18:36:00,
2013-02-03 13:37:00,74.7,54.3,30.05,North,5,5.0,10.0,49,0.00,,,0.00,Wunderground v.1.15,2013-02-03 18:37:00,
2013-02-03 13:39:00,75.0,54.5,30.05,North,349,8.0,14.0,49,0.00,,,0.00,Wunderground v.1.15,2013-02-03 18:39:00,
2013-02-03 13:40:00,75.1,54.1,30.05,NNW,336,7.0,9.0,48,0.00,,,0.00,Wunderground v.1.15,2013-02-03 18:40:00,
2013-02-03 13:41:00,74.9,54.4,30.05,NNW,329,8.0,9.0,49,0.00,,,0.00,Wunderground v.1.15,2013-02-03 18:41:00,
2013-02-03 13:42:00,74.8,54.4,30.05,NNW,335,1.0,9.0,49,0.00,,,0.00,Wunderground v.1.15,2013-02-03 18:42:00,
2013-02-03 13:44:00,74.8,54.9,30.05,North,351,0.0,9.0,50,0.00,,,0.00,Wunderground v.1.15,2013-02-03 18:44:00,
2013-02-03 13:45:00,74.8,54.9,30.05,NNW,338,2.0,9.0,50,0.00,,,0.00,Wunderground v.1.15,2013-02-03 18:45:00,
2013-02-03 13:46:00,74.9,54.4,30.05,NW,324,6.0,9.0,49,0.00,,,0.00,Wunderground v.1.15,2013-02-03 18:46:00,
2013-02-03 13:47:00,74.9,54.4,30.05,NNW,330,0.0,12.0,49,0.00,,,0.00,Wunderground v.1.15,2013-02-03 18:47:00,
2013-02-03 13:49:00,75.1,54.1,30.05,NNW,330,6.0,6.0,48,0.00,,,0.00,Wunderground v.1.15,2013-02-03 18:49:00,
2013-02-03 13:50:00,75.0,54.0,30.05,NNW,336,11.0,11.0,48,0.00,,,0.00,Wunderground v.1.15,2013-02-03 18:50:00,
2013-02-03 13:52:00,74.8,53.2,30.05,NW,318,7.0,11.0,47,0.00,,,0.00,Wunderground v.1.15,2013-02-03 18:52:00,
2013-02-03 13:53:00,74.7,53.1,30.05,NW,309,5.0,11.0,47,0.00,,,0.00,Wunderground v.1.15,2013-02-03 18:53:00,
2013-02-03 13:55:00,74.5,53.5,30.05,North,355,9.0,11.0,48,0.00,,,0.00,Wunderground v.1.15,2013-02-03 18:55:00,
2013-02-03 13:57:00,74.2,53.2,30.05,NW,318,4.0,11.0,48,0.00,,,0.00,Wunderground v.1.15,2013-02-03 18:57:00,
2013-02-03 13:58:00,74.3,53.9,30.05,NNW,336,5.0,11.0,49,0.00,,,0.00,Wunderground v.1.15,2013-02-03 18:58:00,
2013-02-03 14:00:00,74.6,54.7,30.05,NNW,344,1.0,5.0,50,0.00,,,0.00,Wunderground v.1.15,2013-02-03 19:00:00,
2013-02-03 14:02:00,74.9,53.3,30.05,North,355,0.0,7.0,47,0.00,,,0.00,Wunderground v.1.15,2013-02-03 19:02:00,
2013-02-03 14:03:00,74.9,52.7,30.05,North,360,0.0,7.0,46,0.00,,,0.00,Wunderground v.1.15,2013-02-03 19:03:00,
2013-02-03 14:05:00,74.4,52.3,30.05,NNE,23,1.0,7.0,46,0.00,,,0.00,Wunderground v.1.15,2013-02-03 19:05:00,
2013-02-03 14:08:00,74.0,52.5,30.04,NW,321,2.0,10.0,47,0.00,,,0.00,Wunderground v.1.15,2013-02-03 19:08:00,
2013-02-03 14:09:00,74.1,54.8,30.04,WNW,300,0.0,10.0,51,0.00,,,0.00,Wunderground v.1.15,2013-02-03 19:09:00,
2013-02-03 14:11:00,74.4,53.4,30.04,NW,311,1.0,6.0,48,0.00,,,0.00,Wunderground v.1.15,2013-02-03 19:11:00,
2013-02-03 14:13:00,74.5,53.5,30.04,WNW,288,4.0,6.0,48,0.00,,,0.00,Wunderground v.1.15,2013-02-03 19:13:00,
2013-02-03 14:14:00,74.4,53.4,30.04,WNW,302,1.0,6.0,48,0.00,,,0.00,Wunderground v.1.15,2013-02-03 19:14:00,
2013-02-03 14:17:00,74.4,53.4,30.04,West,281,0.0,6.0,48,0.00,,,0.00,Wunderground v.1.15,2013-02-03 19:17:00,
2013-02-03 14:18:00,74.4,53.4,30.04,NNW,336,0.0,7.0,48,0.00,,,0.00,Wunderground v.1.15,2013-02-03 19:18:00,
2013-02-03 14:20:00,74.7,54.8,30.04,NNW,334,0.0,2.0,50,0.00,,,0.00,Wunderground v.1.15,2013-02-03 19:20:00,
2013-02-03 14:22:00,74.7,53.1,30.04,NW,315,1.0,9.0,47,0.00,,,0.00,Wunderground v.1.15,2013-02-03 19:22:00,
2013-02-03 14:23:00,74.6,53.0,30.04,NW,324,1.0,9.0,47,0.00,,,0.00,Wunderground v.1.15,2013-02-03 19:23:00,
2013-02-03 14:24:00,74.6,53.0,30.04,North,350,8.0,9.0,47,0.00,,,0.00,Wunderground v.1.15,2013-02-03 19:24:00,
2013-02-03 14:25:00,74.2,52.7,30.04,NNW,345,2.0,9.0,47,0.00,,,0.00,Wunderground v.1.15,2013-02-03 19:25:00,
2013-02-03 14:27:00,74.2,53.8,30.04,NW,315,0.0,9.0,49,0.00,,,0.00,Wunderground v.1.15,2013-02-03 19:27:00,
2013-02-03 14:29:00,74.3,53.3,30.04,NW,320,1.0,9.0,48,0.00,,,0.00,Wunderground v.1.15,2013-02-03 19:29:00,
2013-02-03 14:31:00,74.5,53.5,30.04,NW,325,1.0,8.0,48,0.00,,,0.00,Wunderground v.1.15,2013-02-03 19:31:00,
2013-02-03 14:33:00,74.5,53.5,30.04,NW,315,0.0,8.0,48,0.00,,,0.00,Wunderground v.1.15,2013-02-03 19:33:00,
2013-02-03 14:34:00,74.5,52.9,30.04,NW,311,6.0,8.0,47,0.00,,,0.00,Wunderground v.1.15,2013-02-03 19:34:00,
2013-02-03 14:36:00,74.4,52.9,30.04,NNW,333,4.0,8.0,47,0.00,,,0.00,Wunderground v.1.15,2013-02-03 19:36:00,
2013-02-03 14:38:00,74.2,52.1,30.04,NNW,348,5.0,12.0,46,0.00,,,0.00,Wunderground v.1.15,2013-02-03 19:38:00,
2013-02-03 14:39:00,74.0,52.5,30.04,North,5,4.0,4.0,47,0.00,,,0.00,Wunderground v.1.15,2013-02-03 19:39:00,
2013-02-03 14:40:00,74.0,52.5,30.04,NNW,348,3.0,4.0,47,0.00,,,0.00,Wunderground v.1.15,2013-02-03 19:40:00,
2013-02-03 14:42:00,73.9,51.8,30.04,NNE,17,5.0,5.0,46,0.00,,,0.00,Wunderground v.1.15,2013-02-03 19:42:00,
2013-02-03 14:43:00,73.9,53.0,30.04,NNW,327,0.0,5.0,48,0.00,,,0.00,Wunderground v.1.15,2013-02-03 19:43:00,
2013-02-03 14:45:00,74.0,53.1,30.04,NNW,344,0.0,5.0,48,0.00,,,0.00,Wunderground v.1.15,2013-02-03 19:45:00,
2013-02-03 14:47:00,74.1,50.8,30.04,North,355,5.0,8.0,44,0.00,,,0.00,Wunderground v.1.15,2013-02-03 19:47:00,
2013-02-03 14:48:00,74.1,50.8,30.04,NNW,337,2.0,8.0,44,0.00,,,0.00,Wunderground v.1.15,2013-02-03 19:48:00,
2013-02-03 14:50:00,74.3,50.4,30.04,North,355,0.0,3.0,43,0.00,,,0.00,Wunderground v.1.15,2013-02-03 19:50:00,
2013-02-03 14:52:00,74.2,50.9,30.04,NNW,343,4.0,7.0,44,0.00,,,0.00,Wunderground v.1.15,2013-02-03 19:52:00,
2013-02-03 14:53:00,74.2,50.9,30.04,NNW,341,0.0,7.0,44,0.00,,,0.00,Wunderground v.1.15,2013-02-03 19:53:00,
2013-02-03 14:56:00,74.0,48.8,30.04,North,355,7.0,7.0,41,0.00,,,0.00,Wunderground v.1.15,2013-02-03 19:56:00,
2013-02-03 14:57:00,73.8,48.0,30.04,North,360,5.0,7.0,40,0.00,,,0.00,Wunderground v.1.15,2013-02-03 19:57:00,
2013-02-03 14:58:00,73.7,47.9,30.04,NNE,15,5.0,7.0,40,0.00,,,0.00,Wunderground v.1.15,2013-02-03 19:58:00,
2013-02-03 15:01:00,73.5,49.0,30.04,NNW,332,1.0,6.0,42,0.00,,,0.00,Wunderground v.1.15,2013-02-03 20:01:00,
2013-02-03 15:02:00,73.6,48.4,30.04,NW,325,1.0,6.0,41,0.00,,,0.00,Wunderground v.1.15,2013-02-03 20:02:00,
2013-02-03 15:03:00,73.7,48.5,30.04,NNW,333,1.0,8.0,41,0.00,,,0.00,Wunderground v.1.15,2013-02-03 20:03:00,
2013-02-03 15:04:00,73.7,48.5,30.04,NW,324,0.0,8.0,41,0.00,,,0.00,Wunderground v.1.15,2013-02-03 20:04:00,
2013-02-03 15:06:00,73.9,47.4,30.04,NNW,336,0.0,8.0,39,0.00,,,0.00,Wunderground v.1.15,2013-02-03 20:06:00,
2013-02-03 15:07:00,73.9,47.4,30.04,NNW,346,4.0,9.0,39,0.00,,,0.00,Wunderground v.1.15,2013-02-03 20:07:00,
2013-02-03 15:09:00,73.8,46.6,30.04,North,360,5.0,9.0,38,0.00,,,0.00,Wunderground v.1.15,2013-02-03 20:09:00,
2013-02-03 15:12:00,72.9,45.8,30.04,NNW,335,1.0,7.0,38,0.00,,,0.00,Wunderground v.1.15,2013-02-03 20:12:00,
2013-02-03 15:13:00,72.8,45.7,30.04,NNW,331,1.0,7.0,38,0.00,,,0.00,Wunderground v.1.15,2013-02-03 20:13:00,
2013-02-03 15:14:00,72.8,45.7,30.04,NNW,330,5.0,7.0,38,0.00,,,0.00,Wunderground v.1.15,2013-02-03 20:14:00,
2013-02-03 15:18:00,73.0,47.2,30.04,NNW,331,6.0,7.0,40,0.00,,,0.00,Wunderground v.1.15,2013-02-03 20:18:00,
2013-02-03 15:19:00,73.0,48.5,30.04,North,350,1.0,7.0,42,0.00,,,0.00,Wunderground v.1.15,2013-02-03 20:19:00,
2013-02-03 15:23:00,73.0,47.9,30.04,NW,323,3.0,7.0,41,0.00,,,0.00,Wunderground v.1.15,2013-02-03 20:23:00,
2013-02-03 15:25:00,73.0,47.9,30.04,NW,324,0.0,7.0,41,0.00,,,0.00,Wunderground v.1.15,2013-02-03 20:25:00,
2013-02-03 15:26:00,73.0,48.5,30.04,NNE,22,1.0,7.0,42,0.00,,,0.00,Wunderground v.1.15,2013-02-03 20:26:00,
2013-02-03 15:28:00,72.8,47.7,30.04,North,10,0.0,7.0,41,0.00,,,0.00,Wunderground v.1.15,2013-02-03 20:28:00,
2013-02-03 15:29:00,72.8,47.7,30.04,NNW,347,4.0,7.0,41,0.00,,,0.00,Wunderground v.1.15,2013-02-03 20:29:00,
2013-02-03 15:30:00,72.9,47.8,30.04,NNW,327,6.0,8.0,41,0.00,,,0.00,Wunderground v.1.15,2013-02-03 20:30:00,
2013-02-03 15:31:00,73.0,47.2,30.04,NNW,344,0.0,8.0,40,0.00,,,0.00,Wunderground v.1.15,2013-02-03 20:31:00,
2013-02-03 15:33:00,72.8,47.7,30.04,NW,321,1.0,8.0,41,0.00,,,0.00,Wunderground v.1.15,2013-02-03 20:33:00,
2013-02-03 15:34:00,72.9,47.8,30.04,NNW,329,1.0,8.0,41,0.00,,,0.00,Wunderground v.1.15,2013-02-03 20:34:00,
2013-02-03 15:36:00,72.8,47.1,30.04,NNW,336,0.0,8.0,40,0.00,,,0.00,Wunderground v.1.15,2013-02-03 20:36:00,
2013-02-03 15:39:00,72.4,45.4,30.04,NNW,342,8.0,8.0,38,0.00,,,0.00,Wunderground v.1.15,2013-02-03 20:39:00,
2013-02-03 15:41:00,72.2,47.2,30.04,North,350,0.0,7.0,41,0.00,,,0.00,Wunderground v.1.15,2013-02-03 20:41:00,
2013-02-03 15:42:00,72.3,47.3,30.04,North,360,2.0,7.0,41,0.00,,,0.00,Wunderground v.1.15,2013-02-03 20:42:00,
2013-02-03 15:44:00,72.4,47.4,30.04,NNW,336,0.0,7.0,41,0.00,,,0.00,Wunderground v.1.15,2013-02-03 20:44:00,
2013-02-03 15:46:00,72.6,46.9,30.04,NW,309,0.0,7.0,40,0.00,,,0.00,Wunderground v.1.15,2013-02-03 20:46:00,
2013-02-03 15:47:00,72.6,47.5,30.04,NNW,346,5.0,7.0,41,0.00,,,0.00,Wunderground v.1.15,2013-02-03 20:47:00,
2013-02-03 15:49:00,72.6,46.2,30.04,North,355,0.0,7.0,39,0.00,,,0.00,Wunderground v.1.15,2013-02-03 20:49:00,
2013-02-03 15:52:00,72.5,48.1,30.04,North,355,0.0,5.0,42,0.00,,,0.00,Wunderground v.1.15,2013-02-03 20:52:00,
2013-02-03 15:54:00,72.6,47.5,30.03,NW,312,7.0,8.0,41,0.00,,,0.00,Wunderground v.1.15,2013-02-03 20:54:00,
2013-02-03 15:55:00,72.6,46.9,30.03,NNW,329,6.0,9.0,40,0.00,,,0.00,Wunderground v.1.15,2013-02-03 20:55:00,
2013-02-03 15:57:00,72.5,47.5,30.04,NNW,338,0.0,9.0,41,0.00,,,0.00,Wunderground v.1.15,2013-02-03 20:57:00,
2013-02-03 15:58:00,72.4,47.4,30.04,North,355,2.0,9.0,41,0.00,,,0.00,Wunderground v.1.15,2013-02-03 20:58:00,
2013-02-03 15:59:00,72.4,46.7,30.04,North,360,1.0,2.0,40,0.00,,,0.00,Wunderground v.1.15,2013-02-03 20:59:00,
2013-02-03 16:01:00,72.2,46.5,30.04,North,5,0.0,4.0,40,0.00,,,0.00,Wunderground v.1.15,2013-02-03 21:01:00,
2013-02-03 16:02:00,72.1,47.1,30.04,NNW,338,1.0,4.0,41,0.00,,,0.00,Wunderground v.1.15,2013-02-03 21:02:00,
2013-02-03 16:04:00,72.1,46.4,30.04,NW,317,6.0,8.0,40,0.00,,,0.00,Wunderground v.1.15,2013-02-03 21:04:00,
2013-02-03 16:06:00,72.1,48.4,30.04,NNW,334,0.0,8.0,43,0.00,,,0.00,Wunderground v.1.15,2013-02-03 21:06:00,
2013-02-03 16:07:00,72.2,49.1,30.04,NNW,337,3.0,8.0,44,0.00,,,0.00,Wunderground v.1.15,2013-02-03 21:07:00,
2013-02-03 16:09:00,72.2,47.2,30.04,NNW,331,2.0,8.0,41,0.00,,,0.00,Wunderground v.1.15,2013-02-03 21:09:00,
2013-02-03 16:10:00,72.1,45.8,30.04,NNW,336,1.0,5.0,39,0.00,,,0.00,Wunderground v.1.15,2013-02-03 21:10:00,
2013-02-03 16:12:00,72.0,45.0,30.04,NNW,329,5.0,5.0,38,0.00,,,0.00,Wunderground v.1.15,2013-02-03 21:12:00,
2013-02-03 16:13:00,71.9,44.9,30.04,NNW,329,0.0,6.0,38,0.00,,,0.00,Wunderground v.1.15,2013-02-03 21:13:00,
2013-02-03 16:14:00,71.8,46.2,30.04,NNW,329,0.0,6.0,40,0.00,,,0.00,Wunderground v.1.15,2013-02-03 21:14:00,
2013-02-03 16:16:00,71.8,45.5,30.04,NNW,344,3.0,6.0,39,0.00,,,0.00,Wunderground v.1.15,2013-02-03 21:16:00,
2013-02-03 16:18:00,71.8,46.2,30.04,North,355,0.0,6.0,40,0.00,,,0.00,Wunderground v.1.15,2013-02-03 21:18:00,
2013-02-03 16:20:00,71.9,46.3,30.03,North,5,0.0,5.0,40,0.00,,,0.00,Wunderground v.1.15,2013-02-03 21:20:00,
2013-02-03 16:21:00,72.0,47.0,30.03,North,5,0.0,5.0,41,0.00,,,0.00,Wunderground v.1.15,2013-02-03 21:21:00,
2013-02-03 16:23:00,71.9,46.9,30.03,North,5,0.0,5.0,41,0.00,,,0.00,Wunderground v.1.15,2013-02-03 21:23:00,
2013-02-03 16:24:00,71.9,46.9,30.03,NNE,29,2.0,5.0,41,0.00,,,0.00,Wunderground v.1.15,2013-02-03 21:24:00,
2013-02-03 16:25:00,71.8,46.8,30.04,North,360,4.0,7.0,41,0.00,,,0.00,Wunderground v.1.15,2013-02-03 21:25:00,
2013-02-03 16:27:00,71.7,45.4,30.03,NNE,14,0.0,7.0,39,0.00,,,0.00,Wunderground v.1.15,2013-02-03 21:27:00,
2013-02-03 16:29:00,71.5,47.8,30.04,NNE,14,0.0,1.0,43,0.00,,,0.00,Wunderground v.1.15,2013-02-03 21:29:00,
2013-02-03 16:30:00,71.5,47.2,30.04,North,5,0.0,2.0,42,0.00,,,0.00,Wunderground v.1.15,2013-02-03 21:30:00,
2013-02-03 16:31:00,71.4,45.8,30.03,North,355,2.0,2.0,40,0.00,,,0.00,Wunderground v.1.15,2013-02-03 21:31:00,
2013-02-03 16:32:00,71.3,45.7,30.04,North,355,0.0,2.0,40,0.00,,,0.00,Wunderground v.1.15,2013-02-03 21:32:00,
2013-02-03 16:34:00,71.3,46.4,30.04,North,355,0.0,4.0,41,0.00,,,0.00,Wunderground v.1.15,2013-02-03 21:34:00,
2013-02-03 16:35:00,71.3,47.0,30.04,North,355,0.0,4.0,42,0.00,,,0.00,Wunderground v.1.15,2013-02-03 21:35:00,
2013-02-03 16:36:00,71.3,45.7,30.04,North,355,0.0,4.0,40,0.00,,,0.00,Wunderground v.1.15,2013-02-03 21:36:00,
2013-02-03 16:37:00,71.2,46.3,30.04,North,355,2.0,4.0,41,0.00,,,0.00,Wunderground v.1.15,2013-02-03 21:37:00,
2013-02-03 16:39:00,71.2,47.6,30.04,North,355,1.0,1.0,43,0.00,,,0.00,Wunderground v.1.15,2013-02-03 21:39:00,
2013-02-03 16:40:00,71.2,48.2,30.04,North,355,0.0,1.0,44,0.00,,,0.00,Wunderground v.1.15,2013-02-03 21:40:00,
2013-02-03 16:41:00,71.2,46.3,30.04,North,355,0.0,1.0,41,0.00,,,0.00,Wunderground v.1.15,2013-02-03 21:41:00,
2013-02-03 16:42:00,71.2,46.9,30.04,North,355,1.0,1.0,42,0.00,,,0.00,Wunderground v.1.15,2013-02-03 21:42:00,
2013-02-03 16:45:00,71.3,45.7,30.04,NNE,13,1.0,3.0,40,0.00,,,0.00,Wunderground v.1.15,2013-02-03 21:45:00,
2013-02-03 16:46:00,71.3,45.1,30.04,North,5,1.0,3.0,39,0.00,,,0.00,Wunderground v.1.15,2013-02-03 21:46:00,
2013-02-03 16:47:00,71.3,46.4,30.04,North,5,0.0,3.0,41,0.00,,,0.00,Wunderground v.1.15,2013-02-03 21:47:00,
2013-02-03 16:50:00,71.7,45.4,30.04,North,11,0.0,3.0,39,0.00,,,0.00,Wunderground v.1.15,2013-02-03 21:50:00,
2013-02-03 16:52:00,71.6,45.3,30.04,North,11,0.0,3.0,39,0.00,,,0.00,Wunderground v.1.15,2013-02-03 21:52:00,
2013-02-03 16:53:00,71.5,44.5,30.04,North,11,0.0,3.0,38,0.00,,,0.00,Wunderground v.1.15,2013-02-03 21:53:00,
2013-02-03 16:55:00,71.1,46.2,30.04,NNE,28,0.0,5.0,41,0.00,,,0.00,Wunderground v.1.15,2013-02-03 21:55:00,
2013-02-03 16:57:00,70.8,45.9,30.04,NNE,23,0.0,5.0,41,0.00,,,0.00,Wunderground v.1.15,2013-02-03 21:57:00,
2013-02-03 16:58:00,70.6,46.4,30.04,NNE,23,0.0,5.0,42,0.00,,,0.00,Wunderground v.1.15,2013-02-03 21:58:00,
2013-02-03 16:59:00,70.6,46.4,30.04,NNE,23,0.0,5.0,42,0.00,,,0.00,Wunderground v.1.15,2013-02-03 21:59:00,
2013-02-03 17:01:00,70.3,46.1,30.04,NNE,12,0.0,3.0,42,0.00,,,0.00,Wunderground v.1.15,2013-02-03 22:01:00,
2013-02-03 17:02:00,70.2,45.4,30.04,NNE,12,2.0,3.0,41,0.00,,,0.00,Wunderground v.1.15,2013-02-03 22:02:00,
2013-02-03 17:04:00,70.1,45.9,30.04,NNE,12,1.0,3.0,42,0.00,,,0.00,Wunderground v.1.15,2013-02-03 22:04:00,
2013-02-03 17:06:00,69.9,45.1,30.04,NNE,12,0.0,3.0,41,0.00,,,0.00,Wunderground v.1.15,2013-02-03 22:06:00,
2013-02-03 17:07:00,69.8,46.9,30.04,NNE,12,0.0,3.0,44,0.00,,,0.00,Wunderground v.1.15,2013-02-03 22:07:00,
2013-02-03 17:09:00,69.7,45.6,30.04,NNE,12,0.0,3.0,42,0.00,,,0.00,Wunderground v.1.15,2013-02-03 22:09:00,
2013-02-03 17:12:00,69.4,47.1,30.04,NNE,12,0.0,0.0,45,0.00,,,0.00,Wunderground v.1.15,2013-02-03 22:12:00,
2013-02-03 17:14:00,69.2,46.4,30.04,NNE,12,0.0,0.0,44,0.00,,,0.00,Wunderground v.1.15,2013-02-03 22:14:00,
2013-02-03 17:15:00,69.1,46.3,30.04,NNE,12,0.0,0.0,44,0.00,,,0.00,Wunderground v.1.15,2013-02-03 22:15:00,
2013-02-03 17:17:00,68.8,47.2,30.04,NNE,12,0.0,0.0,46,0.00,,,0.00,Wunderground v.1.15,2013-02-03 22:17:00,
2013-02-03 17:18:00,68.8,46.0,30.05,NNE,12,0.0,0.0,44,0.00,,,0.00,Wunderground v.1.15,2013-02-03 22:18:00,
2013-02-03 17:19:00,68.6,46.4,30.05,NNE,12,0.0,0.0,45,0.00,,,0.00,Wunderground v.1.15,2013-02-03 22:19:00,
2013-02-03 17:20:00,68.5,46.9,30.05,NNE,12,0.0,0.0,46,0.00,,,0.00,Wunderground v.1.15,2013-02-03 22:20:00,
2013-02-03 17:23:00,68.3,46.1,30.05,NNE,12,0.0,3.0,45,0.00,,,0.00,Wunderground v.1.15,2013-02-03 22:23:00,
2013-02-03 17:24:00,68.2,46.0,30.05,NNE,12,0.0,3.0,45,0.00,,,0.00,Wunderground v.1.15,2013-02-03 22:24:00,
2013-02-03 17:25:00,68.1,45.9,30.05,NNE,12,0.0,3.0,45,0.00,,,0.00,Wunderground v.1.15,2013-02-03 22:25:00,
2013-02-03 17:26:00,68.0,47.0,30.05,NNE,12,0.0,3.0,47,0.00,,,0.00,Wunderground v.1.15,2013-02-03 22:26:00,
2013-02-03 17:28:00,67.9,46.3,30.05,NNE,12,0.0,3.0,46,0.00,,,0.00,Wunderground v.1.15,2013-02-03 22:28:00,
2013-02-03 17:29:00,67.8,45.7,30.05,NNE,12,0.0,0.0,45,0.00,,,0.00,Wunderground v.1.15,2013-02-03 22:29:00,
2013-02-03 17:30:00,67.7,45.6,30.05,NNE,12,0.0,0.0,45,0.00,,,0.00,Wunderground v.1.15,2013-02-03 22:30:00,
2013-02-03 17:32:00,67.6,47.2,30.05,NNE,12,0.0,0.0,48,0.00,,,0.00,Wunderground v.1.15,2013-02-03 22:32:00,
2013-02-03 17:34:00,67.4,46.5,30.05,NNE,12,0.0,0.0,47,0.00,,,0.00,Wunderground v.1.15,2013-02-03 22:34:00,
2013-02-03 17:35:00,67.4,46.5,30.05,NNE,12,0.0,0.0,47,0.00,,,0.00,Wunderground v.1.15,2013-02-03 22:35:00,
2013-02-03 17:36:00,67.3,46.9,30.05,NNE,12,0.0,0.0,48,0.00,,,0.00,Wunderground v.1.15,2013-02-03 22:36:00,
2013-02-03 17:37:00,67.2,46.3,30.05,NNE,12,0.0,0.0,47,0.00,,,0.00,Wunderground v.1.15,2013-02-03 22:37:00,
2013-02-03 17:40:00,67.0,45.5,30.05,NNE,12,0.0,0.0,46,0.00,,,0.00,Wunderground v.1.15,2013-02-03 22:40:00,
2013-02-03 17:42:00,66.9,46.0,30.05,NNE,12,0.0,0.0,47,0.00,,,0.00,Wunderground v.1.15,2013-02-03 22:42:00,
2013-02-03 17:43:00,66.9,46.0,30.05,NNE,12,0.0,0.0,47,0.00,,,0.00,Wunderground v.1.15,2013-02-03 22:43:00,
2013-02-03 17:45:00,66.7,45.8,30.05,NNE,12,0.0,0.0,47,0.00,,,0.00,Wunderground v.1.15,2013-02-03 22:45:00,
2013-02-03 17:46:00,66.7,45.3,30.05,NNE,12,0.0,0.0,46,0.00,,,0.00,Wunderground v.1.15,2013-02-03 22:46:00,
2013-02-03 17:47:00,66.6,45.7,30.05,NNE,12,0.0,1.0,47,0.00,,,0.00,Wunderground v.1.15,2013-02-03 22:47:00,
2013-02-03 17:48:00,66.5,45.6,30.05,NNE,12,0.0,1.0,47,0.00,,,0.00,Wunderground v.1.15,2013-02-03 22:48:00,
2013-02-03 17:51:00,66.4,46.1,30.05,NNE,12,0.0,0.0,48,0.00,,,0.00,Wunderground v.1.15,2013-02-03 22:51:00,
2013-02-03 17:53:00,66.1,45.8,30.05,NNE,12,0.0,0.0,48,0.00,,,0.00,Wunderground v.1.15,2013-02-03 22:53:00,
2013-02-03 17:56:00,65.7,46.0,30.05,NNE,12,0.0,0.0,49,0.00,,,0.00,Wunderground v.1.15,2013-02-03 22:56:00,
2013-02-03 17:59:00,65.4,45.2,30.05,NNE,12,0.0,0.0,48,0.00,,,0.00,Wunderground v.1.15,2013-02-03 22:59:00,
2013-02-03 18:01:00,65.2,45.0,30.05,NNE,12,0.0,0.0,48,0.00,,,0.00,Wunderground v.1.15,2013-02-03 23:01:00,
2013-02-03 18:02:00,65.1,44.9,30.05,NNE,12,0.0,0.0,48,0.00,,,0.00,Wunderground v.1.15,2013-02-03 23:02:00,
2013-02-03 18:04:00,64.9,44.7,30.05,NNE,12,0.0,0.0,48,0.00,,,0.00,Wunderground v.1.15,2013-02-03 23:04:00,
2013-02-03 18:06:00,64.6,45.5,30.05,NNE,12,0.0,0.0,50,0.00,,,0.00,Wunderground v.1.15,2013-02-03 23:06:00,
2013-02-03 18:07:00,64.5,45.4,30.05,NNE,12,0.0,0.0,50,0.00,,,0.00,Wunderground v.1.15,2013-02-03 23:07:00,
2013-02-03 18:09:00,64.1,45.1,30.05,NNE,12,0.0,0.0,50,0.00,,,0.00,Wunderground v.1.15,2013-02-03 23:09:00,
2013-02-03 18:10:00,64.0,45.0,30.05,NNE,12,0.0,0.0,50,0.00,,,0.00,Wunderground v.1.15,2013-02-03 23:10:00,
2013-02-03 18:11:00,63.8,44.8,30.05,NNE,12,0.0,0.0,50,0.00,,,0.00,Wunderground v.1.15,2013-02-03 23:11:00,
2013-02-03 18:12:00,63.8,44.8,30.05,NNE,12,0.0,0.0,50,0.00,,,0.00,Wunderground v.1.15,2013-02-03 23:12:00,
2013-02-03 18:15:00,63.6,45.1,30.05,NNE,12,0.0,0.0,51,0.00,,,0.00,Wunderground v.1.15,2013-02-03 23:15:00,
2013-02-03 18:17:00,63.4,46.0,30.05,NNE,12,0.0,0.0,53,0.00,,,0.00,Wunderground v.1.15,2013-02-03 23:17:00,
2013-02-03 18:18:00,63.2,45.8,30.05,NNE,12,0.0,0.0,53,0.00,,,0.00,Wunderground v.1.15,2013-02-03 23:18:00,
2013-02-03 18:20:00,62.9,46.5,30.05,NNE,12,0.0,0.0,55,0.00,,,0.00,Wunderground v.1.15,2013-02-03 23:20:00,
2013-02-03 18:22:00,62.5,46.6,30.05,NNE,12,0.0,0.0,56,0.00,,,0.00,Wunderground v.1.15,2013-02-03 23:22:00,
2013-02-03 18:23:00,62.3,46.4,30.05,NNE,12,0.0,0.0,56,0.00,,,0.00,Wunderground v.1.15,2013-02-03 23:23:00,
2013-02-03 18:25:00,61.9,46.0,30.05,NNE,12,0.0,0.0,56,0.00,,,0.00,Wunderground v.1.15,2013-02-03 23:25:00,
2013-02-03 18:28:00,61.5,46.6,30.05,NNE,12,0.0,0.0,58,0.00,,,0.00,Wunderground v.1.15,2013-02-03 23:28:00,
2013-02-03 18:30:00,61.5,47.0,30.05,NNE,12,0.0,0.0,59,0.00,,,0.00,Wunderground v.1.15,2013-02-03 23:30:00,
2013-02-03 18:33:00,61.7,45.4,30.05,NNE,12,0.0,0.0,55,0.00,,,0.00,Wunderground v.1.15,2013-02-03 23:33:00,
2013-02-03 18:35:00,61.7,44.4,30.05,NNE,12,0.0,0.0,53,0.00,,,0.00,Wunderground v.1.15,2013-02-03 23:35:00,
2013-02-03 18:38:00,61.5,44.2,30.05,NNE,12,0.0,0.0,53,0.00,,,0.00,Wunderground v.1.15,2013-02-03 23:38:00,
2013-02-03 18:39:00,61.5,44.2,30.05,NNE,12,0.0,0.0,53,0.00,,,0.00,Wunderground v.1.15,2013-02-03 23:39:00,
2013-02-03 18:41:00,61.2,44.9,30.05,NNE,12,0.0,0.0,55,0.00,,,0.00,Wunderground v.1.15,2013-02-03 23:41:00,
2013-02-03 18:44:00,61.0,45.2,30.05,NNE,12,0.0,0.0,56,0.00,,,0.00,Wunderground v.1.15,2013-02-03 23:44:00,
2013-02-03 18:47:00,61.0,45.2,30.05,NNE,12,0.0,0.0,56,0.00,,,0.00,Wunderground v.1.15,2013-02-03 23:47:00,
2013-02-03 18:49:00,61.1,45.7,30.05,NNE,12,0.0,0.0,57,0.00,,,0.00,Wunderground v.1.15,2013-02-03 23:49:00,
2013-02-03 18:50:00,61.1,45.7,30.05,NNE,12,0.0,0.0,57,0.00,,,0.00,Wunderground v.1.15,2013-02-03 23:50:00,
2013-02-03 18:52:00,61.3,45.9,30.05,NNE,12,0.0,0.0,57,0.00,,,0.00,Wunderground v.1.15,2013-02-03 23:52:00,
2013-02-03 18:54:00,61.3,45.9,30.05,NNE,12,0.0,0.0,57,0.00,,,0.00,Wunderground v.1.15,2013-02-03 23:54:00,
2013-02-03 18:55:00,61.3,45.5,30.05,NNE,12,0.0,0.0,56,0.00,,,0.00,Wunderground v.1.15,2013-02-03 23:55:00,
2013-02-03 18:57:00,60.9,45.6,30.05,NNE,12,0.0,0.0,57,0.00,,,0.00,Wunderground v.1.15,2013-02-03 23:57:00,
2013-02-03 19:00:00,60.7,45.8,30.05,NNE,12,0.0,0.0,58,0.00,,,0.00,Wunderground v.1.15,2013-02-04 00:00:00,
2013-02-03 19:02:00,60.4,46.0,30.05,NNE,12,0.0,0.0,59,0.00,,,0.00,Wunderground v.1.15,2013-02-04 00:02:00,
2013-02-03 19:05:00,60.0,46.1,30.05,NNE,12,0.0,0.0,60,0.00,,,0.00,Wunderground v.1.15,2013-02-04 00:05:00,
2013-02-03 19:08:00,59.7,45.8,30.05,NNE,12,0.0,0.0,60,0.00,,,0.00,Wunderground v.1.15,2013-02-04 00:08:00,
2013-02-03 19:10:00,59.5,46.5,30.05,NNE,12,0.0,0.0,62,0.00,,,0.00,Wunderground v.1.15,2013-02-04 00:10:00,
2013-02-03 19:11:00,59.3,46.3,30.05,NNE,12,0.0,0.0,62,0.00,,,0.00,Wunderground v.1.15,2013-02-04 00:11:00,
2013-02-03 19:13:00,59.2,46.2,30.05,NNE,12,0.0,0.0,62,0.00,,,0.00,Wunderground v.1.15,2013-02-04 00:13:00,
2013-02-03 19:15:00,58.9,46.3,30.05,NNE,12,0.0,0.0,63,0.00,,,0.00,Wunderground v.1.15,2013-02-04 00:15:00,
2013-02-03 19:16:00,58.8,46.6,30.05,NNE,12,0.0,0.0,64,0.00,,,0.00,Wunderground v.1.15,2013-02-04 00:16:00,
2013-02-03 19:18:00,58.7,46.5,30.05,NNE,12,0.0,0.0,64,0.00,,,0.00,Wunderground v.1.15,2013-02-04 00:18:00,
2013-02-03 19:20:00,58.6,46.5,30.05,NNE,12,0.0,0.0,64,0.00,,,0.00,Wunderground v.1.15,2013-02-04 00:20:00,
2013-02-03 19:21:00,58.6,46.5,30.05,NNE,12,0.0,0.0,64,0.00,,,0.00,Wunderground v.1.15,2013-02-04 00:21:00,
2013-02-03 19:22:00,58.6,46.5,30.05,NNE,12,0.0,0.0,64,0.00,,,0.00,Wunderground v.1.15,2013-02-04 00:22:00,
2013-02-03 19:23:00,58.5,46.4,30.05,NNE,12,0.0,0.0,64,0.00,,,0.00,Wunderground v.1.15,2013-02-04 00:23:00,
2013-02-03 19:25:00,58.5,45.9,30.05,NNE,12,0.0,0.0,63,0.00,,,0.00,Wunderground v.1.15,2013-02-04 00:25:00,
2013-02-03 19:27:00,58.7,45.7,30.05,NNE,12,0.0,0.0,62,0.00,,,0.00,Wunderground v.1.15,2013-02-04 00:27:00,
2013-02-03 19:29:00,58.9,45.5,30.06,NNE,12,0.0,0.0,61,0.00,,,0.00,Wunderground v.1.15,2013-02-04 00:29:00,
2013-02-03 19:30:00,59.1,44.8,30.05,NNE,12,0.0,0.0,59,0.00,,,0.00,Wunderground v.1.15,2013-02-04 00:30:00,
2013-02-03 19:32:00,59.2,44.4,30.05,NNE,12,0.0,0.0,58,0.00,,,0.00,Wunderground v.1.15,2013-02-04 00:32:00,
2013-02-03 19:34:00,59.2,44.4,30.06,NNE,12,0.0,0.0,58,0.00,,,0.00,Wunderground v.1.15,2013-02-04 00:34:00,
2013-02-03 19:36:00,59.3,44.1,30.06,NNE,12,0.0,0.0,57,0.00,,,0.00,Wunderground v.1.15,2013-02-04 00:36:00,
2013-02-03 19:37:00,59.4,44.2,30.06,NNE,12,0.0,0.0,57,0.00,,,0.00,Wunderground v.1.15,2013-02-04 00:37:00,
2013-02-03 19:38:00,59.4,43.7,30.06,NNE,12,0.0,0.0,56,0.00,,,0.00,Wunderground v.1.15,2013-02-04 00:38:00,
2013-02-03 19:39:00,59.5,43.8,30.06,NNE,12,0.0,0.0,56,0.00,,,0.00,Wunderground v.1.15,2013-02-04 00:39:00,
2013-02-03 19:42:00,60.0,44.3,30.06,NNE,12,0.0,0.0,56,0.00,,,0.00,Wunderground v.1.15,2013-02-04 00:42:00,
2013-02-03 19:43:00,60.1,43.4,30.06,NNE,12,0.0,0.0,54,0.00,,,0.00,Wunderground v.1.15,2013-02-04 00:43:00,
2013-02-03 19:44:00,60.1,43.4,30.06,NNE,12,0.0,0.0,54,0.00,,,0.00,Wunderground v.1.15,2013-02-04 00:44:00,
2013-02-03 19:47:00,60.6,43.9,30.06,NNE,12,0.0,0.0,54,0.00,,,0.00,Wunderground v.1.15,2013-02-04 00:47:00,
2013-02-03 19:48:00,60.7,44.4,30.06,NNE,12,0.0,0.0,55,0.00,,,0.00,Wunderground v.1.15,2013-02-04 00:48:00,
2013-02-03 19:49:00,60.7,44.4,30.06,NNE,12,0.0,0.0,55,0.00,,,0.00,Wunderground v.1.15,2013-02-04 00:49:00,
2013-02-03 19:52:00,60.5,44.2,30.07,NNE,12,0.0,0.0,55,0.00,,,0.00,Wunderground v.1.15,2013-02-04 00:52:00,
2013-02-03 19:54:00,60.2,44.0,30.07,NNE,12,0.0,0.0,55,0.00,,,0.00,Wunderground v.1.15,2013-02-04 00:54:00,
2013-02-03 19:57:00,59.3,44.5,30.07,NNE,12,0.0,0.0,58,0.00,,,0.00,Wunderground v.1.15,2013-02-04 00:57:00,
2013-02-03 19:59:00,58.6,44.3,30.07,NNE,12,0.0,0.0,59,0.00,,,0.00,Wunderground v.1.15,2013-02-04 00:59:00,
2013-02-03 20:00:00,58.5,44.2,30.07,NNE,12,0.0,0.0,59,0.00,,,0.00,Wunderground v.1.15,2013-02-04 01:00:00,
2013-02-03 20:02:00,58.0,44.6,30.07,NNE,12,0.0,0.0,61,0.00,,,0.00,Wunderground v.1.15,2013-02-04 01:02:00,
2013-02-03 20:05:00,57.8,44.9,30.07,NNE,12,0.0,0.0,62,0.00,,,0.00,Wunderground v.1.15,2013-02-04 01:05:00,
2013-02-03 20:08:00,57.4,44.9,30.07,NNE,12,0.0,0.0,63,0.00,,,0.00,Wunderground v.1.15,2013-02-04 01:08:00,
2013-02-03 20:10:00,57.1,45.0,30.07,NNE,12,0.0,0.0,64,0.00,,,0.00,Wunderground v.1.15,2013-02-04 01:10:00,
2013-02-03 20:13:00,57.5,45.8,30.07,NNE,12,0.0,0.0,65,0.00,,,0.00,Wunderground v.1.15,2013-02-04 01:13:00,
2013-02-03 20:15:00,57.7,46.4,30.07,NNE,12,0.0,0.0,66,0.00,,,0.00,Wunderground v.1.15,2013-02-04 01:15:00,
2013-02-03 20:16:00,57.8,46.5,30.07,NNE,12,0.0,0.0,66,0.00,,,0.00,Wunderground v.1.15,2013-02-04 01:16:00,
2013-02-03 20:19:00,57.7,47.2,30.08,NNE,12,0.0,0.0,68,0.00,,,0.00,Wunderground v.1.15,2013-02-04 01:19:00,
2013-02-03 20:20:00,57.5,47.0,30.08,NNE,12,0.0,0.0,68,0.00,,,0.00,Wunderground v.1.15,2013-02-04 01:20:00,
2013-02-03 20:22:00,57.3,46.8,30.07,NNE,12,0.0,0.0,68,0.00,,,0.00,Wunderground v.1.15,2013-02-04 01:22:00,
2013-02-03 20:24:00,57.0,46.1,30.08,NNE,12,0.0,0.0,67,0.00,,,0.00,Wunderground v.1.15,2013-02-04 01:24:00,
2013-02-03 20:25:00,56.8,46.0,30.07,NNE,12,0.0,0.0,67,0.00,,,0.00,Wunderground v.1.15,2013-02-04 01:25:00,
2013-02-03 20:26:00,56.8,46.0,30.07,NNE,12,0.0,0.0,67,0.00,,,0.00,Wunderground v.1.15,2013-02-04 01:26:00,
2013-02-03 20:27:00,56.8,45.6,30.07,NNE,12,0.0,0.0,66,0.00,,,0.00,Wunderground v.1.15,2013-02-04 01:27:00,
2013-02-03 20:29:00,56.6,45.4,30.07,NNE,12,0.0,0.0,66,0.00,,,0.00,Wunderground v.1.15,2013-02-04 01:29:00,
2013-02-03 20:31:00,56.6,45.0,30.08,NNE,12,0.0,0.0,65,0.00,,,0.00,Wunderground v.1.15,2013-02-04 01:31:00,
2013-02-03 20:32:00,56.6,45.4,30.08,NNE,12,0.0,0.0,66,0.00,,,0.00,Wunderground v.1.15,2013-02-04 01:32:00,
2013-02-03 20:34:00,56.3,45.1,30.08,NNE,12,0.0,0.0,66,0.00,,,0.00,Wunderground v.1.15,2013-02-04 01:34:00,
2013-02-03 20:36:00,55.9,45.1,30.08,NNE,12,0.0,0.0,67,0.00,,,0.00,Wunderground v.1.15,2013-02-04 01:36:00,
2013-02-03 20:37:00,55.8,45.4,30.08,NNE,12,0.0,0.0,68,0.00,,,0.00,Wunderground v.1.15,2013-02-04 01:37:00,
2013-02-03 20:39:00,55.5,45.5,30.08,NNE,12,0.0,0.0,69,0.00,,,0.00,Wunderground v.1.15,2013-02-04 01:39:00,
2013-02-03 20:41:00,55.7,46.8,30.08,NNE,12,0.0,0.0,72,0.00,,,0.00,Wunderground v.1.15,2013-02-04 01:41:00,
2013-02-03 20:42:00,55.7,46.8,30.08,NNE,12,0.0,0.0,72,0.00,,,0.00,Wunderground v.1.15,2013-02-04 01:42:00,
2013-02-03 20:45:00,56.0,47.8,30.08,NNE,12,0.0,0.0,74,0.00,,,0.00,Wunderground v.1.15,2013-02-04 01:45:00,
2013-02-03 20:47:00,56.1,48.3,30.08,NNE,12,0.0,0.0,75,0.00,,,0.00,Wunderground v.1.15,2013-02-04 01:47:00,
2013-02-03 20:49:00,56.0,48.2,30.08,NNE,12,0.0,0.0,75,0.00,,,0.00,Wunderground v.1.15,2013-02-04 01:49:00,
2013-02-03 20:50:00,55.8,48.0,30.08,NNE,12,0.0,0.0,75,0.00,,,0.00,Wunderground v.1.15,2013-02-04 01:50:00,
2013-02-03 20:53:00,55.1,47.3,30.08,NNE,12,0.0,0.0,75,0.00,,,0.00,Wunderground v.1.15,2013-02-04 01:53:00,
2013-02-03 20:54:00,55.0,47.2,30.08,NNE,12,0.0,0.0,75,0.00,,,0.00,Wunderground v.1.15,2013-02-04 01:54:00,
2013-02-03 20:55:00,54.6,47.2,30.08,NNE,12,0.0,0.0,76,0.00,,,0.00,Wunderground v.1.15,2013-02-04 01:55:00,
2013-02-03 20:58:00,54.2,47.1,30.08,NNE,12,0.0,0.0,77,0.00,,,0.00,Wunderground v.1.15,2013-02-04 01:58:00,
2013-02-03 20:59:00,54.2,47.1,30.08,NNE,12,0.0,0.0,77,0.00,,,0.00,Wunderground v.1.15,2013-02-04 01:59:00,
2013-02-03 21:00:00,54.1,47.0,30.08,NNE,12,0.0,0.0,77,0.00,,,0.00,Wunderground v.1.15,2013-02-04 02:00:00,
2013-02-03 21:04:00,53.7,47.3,30.08,NNE,12,0.0,0.0,79,0.00,,,0.00,Wunderground v.1.15,2013-02-04 02:04:00,
2013-02-03 21:05:00,53.6,47.2,30.08,NNE,12,0.0,0.0,79,0.00,,,0.00,Wunderground v.1.15,2013-02-04 02:05:00,
2013-02-03 21:06:00,53.4,47.0,30.08,NNE,12,0.0,0.0,79,0.00,,,0.00,Wunderground v.1.15,2013-02-04 02:06:00,
2013-02-03 21:09:00,53.2,47.2,30.08,NNE,12,0.0,0.0,80,0.00,,,0.00,Wunderground v.1.15,2013-02-04 02:09:00,
2013-02-03 21:10:00,53.1,46.8,30.08,NNE,12,0.0,0.0,79,0.00,,,0.00,Wunderground v.1.15,2013-02-04 02:10:00,
2013-02-03 21:11:00,53.1,46.8,30.08,NNE,12,0.0,0.0,79,0.00,,,0.00,Wunderground v.1.15,2013-02-04 02:11:00,
2013-02-03 21:14:00,53.4,46.4,30.08,NNE,12,0.0,0.0,77,0.00,,,0.00,Wunderground v.1.15,2013-02-04 02:14:00,
2013-02-03 21:15:00,53.5,46.1,30.08,NNE,12,0.0,0.0,76,0.00,,,0.00,Wunderground v.1.15,2013-02-04 02:15:00,
2013-02-03 21:17:00,53.9,45.8,30.08,NNE,12,0.0,0.0,74,0.00,,,0.00,Wunderground v.1.15,2013-02-04 02:17:00,
2013-02-03 21:19:00,54.5,46.0,30.08,NNE,12,0.0,0.0,73,0.00,,,0.00,Wunderground v.1.15,2013-02-04 02:19:00,
2013-02-03 21:20:00,54.7,45.8,30.08,NNE,12,0.0,0.0,72,0.00,,,0.00,Wunderground v.1.15,2013-02-04 02:20:00,
2013-02-03 21:21:00,54.8,45.9,30.08,NNE,12,0.0,0.0,72,0.00,,,0.00,Wunderground v.1.15,2013-02-04 02:21:00,
2013-02-03 21:22:00,54.9,45.7,30.08,NNE,12,0.0,0.0,71,0.00,,,0.00,Wunderground v.1.15,2013-02-04 02:22:00,
2013-02-03 21:25:00,55.0,45.4,30.07,NNE,12,0.0,0.0,70,0.00,,,0.00,Wunderground v.1.15,2013-02-04 02:25:00,
2013-02-03 21:26:00,55.1,45.5,30.08,NNE,12,0.0,0.0,70,0.00,,,0.00,Wunderground v.1.15,2013-02-04 02:26:00,
2013-02-03 21:27:00,55.1,45.5,30.08,NNE,12,0.0,0.0,70,0.00,,,0.00,Wunderground v.1.15,2013-02-04 02:27:00,
2013-02-03 21:30:00,55.0,45.4,30.08,NNE,12,0.0,0.0,70,0.00,,,0.00,Wunderground v.1.15,2013-02-04 02:30:00,
2013-02-03 21:31:00,55.0,45.4,30.08,NNE,12,0.0,0.0,70,0.00,,,0.00,Wunderground v.1.15,2013-02-04 02:31:00,
2013-02-03 21:33:00,55.0,46.1,30.08,NNE,12,0.0,0.0,72,0.00,,,0.00,Wunderground v.1.15,2013-02-04 02:33:00,
2013-02-03 21:35:00,55.1,46.2,30.08,NNE,12,0.0,0.0,72,0.00,,,0.00,Wunderground v.1.15,2013-02-04 02:35:00,
2013-02-03 21:36:00,55.1,46.2,30.08,NNE,12,0.0,0.0,72,0.00,,,0.00,Wunderground v.1.15,2013-02-04 02:36:00,
2013-02-03 21:38:00,55.3,46.4,30.08,NNE,12,0.0,0.0,72,0.00,,,0.00,Wunderground v.1.15,2013-02-04 02:38:00,
2013-02-03 21:40:00,55.5,46.6,30.08,NNE,12,0.0,0.0,72,0.00,,,0.00,Wunderground v.1.15,2013-02-04 02:40:00,
2013-02-03 21:41:00,55.5,46.2,30.08,NNE,12,0.0,0.0,71,0.00,,,0.00,Wunderground v.1.15,2013-02-04 02:41:00,
2013-02-03 21:43:00,55.2,46.0,30.08,NNE,12,0.0,0.0,71,0.00,,,0.00,Wunderground v.1.15,2013-02-04 02:43:00,
2013-02-03 21:45:00,54.8,45.9,30.08,NNE,12,0.0,0.0,72,0.00,,,0.00,Wunderground v.1.15,2013-02-04 02:45:00,
2013-02-03 21:46:00,54.6,46.1,30.08,NNE,12,0.0,0.0,73,0.00,,,0.00,Wunderground v.1.15,2013-02-04 02:46:00,
2013-02-03 21:47:00,54.5,46.0,30.08,NNE,12,0.0,0.0,73,0.00,,,0.00,Wunderground v.1.15,2013-02-04 02:47:00,
2013-02-03 21:49:00,54.3,45.8,30.08,NNE,12,0.0,0.0,73,0.00,,,0.00,Wunderground v.1.15,2013-02-04 02:49:00,
2013-02-03 21:51:00,54.5,47.1,30.08,NNE,12,0.0,0.0,76,0.00,,,0.00,Wunderground v.1.15,2013-02-04 02:51:00,
2013-02-03 21:52:00,54.5,47.1,30.08,NNE,12,0.0,0.0,76,0.00,,,0.00,Wunderground v.1.15,2013-02-04 02:52:00,
2013-02-03 21:54:00,54.7,47.6,30.08,NNE,12,0.0,0.0,77,0.00,,,0.00,Wunderground v.1.15,2013-02-04 02:54:00,
2013-02-03 21:57:00,54.5,47.1,30.08,NNE,12,0.0,0.0,76,0.00,,,0.00,Wunderground v.1.15,2013-02-04 02:57:00,
2013-02-03 22:00:00,53.9,46.2,30.08,NNE,12,0.0,0.0,75,0.00,,,0.00,Wunderground v.1.15,2013-02-04 03:00:00,
2013-02-03 22:02:00,53.3,45.9,30.08,NNE,12,0.0,0.0,76,0.00,,,0.00,Wunderground v.1.15,2013-02-04 03:02:00,
2013-02-03 22:03:00,53.1,46.1,30.08,NNE,12,0.0,0.0,77,0.00,,,0.00,Wunderground v.1.15,2013-02-04 03:03:00,
2013-02-03 22:05:00,52.9,46.2,30.08,NNE,12,0.0,0.0,78,0.00,,,0.00,Wunderground v.1.15,2013-02-04 03:05:00,
2013-02-03 22:07:00,52.6,45.9,30.08,NNE,12,0.0,0.0,78,0.00,,,0.00,Wunderground v.1.15,2013-02-04 03:07:00,
2013-02-03 22:09:00,52.4,46.1,30.08,NNE,12,0.0,0.0,79,0.00,,,0.00,Wunderground v.1.15,2013-02-04 03:09:00,
2013-02-03 22:10:00,52.3,46.0,30.08,NNE,12,0.0,0.0,79,0.00,,,0.00,Wunderground v.1.15,2013-02-04 03:10:00,
2013-02-03 22:12:00,52.3,46.0,30.08,NNE,12,0.0,0.0,79,0.00,,,0.00,Wunderground v.1.15,2013-02-04 03:12:00,
2013-02-03 22:14:00,52.4,46.1,30.08,NNE,12,0.0,0.0,79,0.00,,,0.00,Wunderground v.1.15,2013-02-04 03:14:00,
2013-02-03 22:15:00,52.6,46.6,30.08,NNE,12,0.0,0.0,80,0.00,,,0.00,Wunderground v.1.15,2013-02-04 03:15:00,
2013-02-03 22:18:00,53.2,47.2,30.09,NNE,12,0.0,0.0,80,0.00,,,0.00,Wunderground v.1.15,2013-02-04 03:18:00,
2013-02-03 22:19:00,53.4,47.4,30.09,NNE,12,0.0,0.0,80,0.00,,,0.00,Wunderground v.1.15,2013-02-04 03:19:00,
2013-02-03 22:20:00,53.6,47.2,30.09,NNE,12,0.0,0.0,79,0.00,,,0.00,Wunderground v.1.15,2013-02-04 03:20:00,
2013-02-03 22:21:00,53.6,47.2,30.09,NNE,12,0.0,0.0,79,0.00,,,0.00,Wunderground v.1.15,2013-02-04 03:21:00,
2013-02-03 22:23:00,53.7,47.0,30.09,NNE,12,0.0,0.0,78,0.00,,,0.00,Wunderground v.1.15,2013-02-04 03:23:00,
2013-02-03 22:24:00,53.8,47.1,30.09,NNE,12,0.0,0.0,78,0.00,,,0.00,Wunderground v.1.15,2013-02-04 03:24:00,
2013-02-03 22:25:00,53.8,47.1,30.09,NNE,12,0.0,0.0,78,0.00,,,0.00,Wunderground v.1.15,2013-02-04 03:25:00,
2013-02-03 22:26:00,53.8,46.8,30.09,NNE,12,0.0,0.0,77,0.00,,,0.00,Wunderground v.1.15,2013-02-04 03:26:00,
2013-02-03 22:28:00,53.6,46.6,30.09,NNE,12,0.0,0.0,77,0.00,,,0.00,Wunderground v.1.15,2013-02-04 03:28:00,
2013-02-03 22:29:00,53.5,46.5,30.09,NNE,12,0.0,0.0,77,0.00,,,0.00,Wunderground v.1.15,2013-02-04 03:29:00,
2013-02-03 22:31:00,53.2,46.2,30.09,NNE,12,0.0,0.0,77,0.00,,,0.00,Wunderground v.1.15,2013-02-04 03:31:00,
2013-02-03 22:34:00,52.7,46.0,30.08,NNE,12,0.0,0.0,78,0.00,,,0.00,Wunderground v.1.15,2013-02-04 03:34:00,
2013-02-03 22:36:00,52.4,46.4,30.08,NNE,12,0.0,0.0,80,0.00,,,0.00,Wunderground v.1.15,2013-02-04 03:36:00,
2013-02-03 22:37:00,52.3,46.3,30.08,NNE,12,0.0,0.0,80,0.00,,,0.00,Wunderground v.1.15,2013-02-04 03:37:00,
2013-02-03 22:40:00,52.4,47.1,30.09,NNE,12,0.0,0.0,82,0.00,,,0.00,Wunderground v.1.15,2013-02-04 03:40:00,
2013-02-03 22:41:00,52.5,47.2,30.09,NNE,12,0.0,0.0,82,0.00,,,0.00,Wunderground v.1.15,2013-02-04 03:41:00,
2013-02-03 22:42:00,52.6,47.3,30.09,NNE,12,0.0,0.0,82,0.00,,,0.00,Wunderground v.1.15,2013-02-04 03:42:00,
2013-02-03 22:45:00,52.9,47.9,30.09,NNE,12,0.0,0.0,83,0.00,,,0.00,Wunderground v.1.15,2013-02-04 03:45:00,
2013-02-03 22:47:00,53.2,48.5,30.09,NNE,12,0.0,0.0,84,0.00,,,0.00,Wunderground v.1.15,2013-02-04 03:47:00,
2013-02-03 22:48:00,53.4,48.7,30.09,NNE,12,0.0,0.0,84,0.00,,,0.00,Wunderground v.1.15,2013-02-04 03:48:00,
2013-02-03 22:50:00,53.7,49.0,30.08,NNE,12,0.0,0.0,84,0.00,,,0.00,Wunderground v.1.15,2013-02-04 03:50:00,
2013-02-03 22:51:00,53.8,49.1,30.08,NNE,12,0.0,0.0,84,0.00,,,0.00,Wunderground v.1.15,2013-02-04 03:51:00,
2013-02-03 22:52:00,53.7,49.0,30.09,NNE,12,0.0,0.0,84,0.00,,,0.00,Wunderground v.1.15,2013-02-04 03:52:00,
2013-02-03 22:53:00,53.6,48.9,30.09,NNE,12,0.0,0.0,84,0.00,,,0.00,Wunderground v.1.15,2013-02-04 03:53:00,
2013-02-03 22:55:00,53.6,49.2,30.08,NNE,12,0.0,0.0,85,0.00,,,0.00,Wunderground v.1.15,2013-02-04 03:55:00,
2013-02-03 22:56:00,53.5,49.1,30.08,NNE,12,0.0,0.0,85,0.00,,,0.00,Wunderground v.1.15,2013-02-04 03:56:00,
2013-02-03 22:58:00,53.2,48.5,30.09,NNE,12,0.0,0.0,84,0.00,,,0.00,Wunderground v.1.15,2013-02-04 03:58:00,
2013-02-03 22:59:00,53.0,48.3,30.09,NNE,12,0.0,0.0,84,0.00,,,0.00,Wunderground v.1.15,2013-02-04 03:59:00,
2013-02-03 23:01:00,52.8,48.1,30.09,NNE,12,0.0,0.0,84,0.00,,,0.00,Wunderground v.1.15,2013-02-04 04:01:00,
2013-02-03 23:02:00,52.7,48.3,30.09,NNE,12,0.0,0.0,85,0.00,,,0.00,Wunderground v.1.15,2013-02-04 04:02:00,
2013-02-03 23:03:00,52.6,48.2,30.09,NNE,12,0.0,0.0,85,0.00,,,0.00,Wunderground v.1.15,2013-02-04 04:03:00,
2013-02-03 23:04:00,52.4,48.0,30.08,NNE,12,0.0,0.0,85,0.00,,,0.00,Wunderground v.1.15,2013-02-04 04:04:00,
2013-02-03 23:06:00,52.2,47.8,30.08,NNE,12,0.0,0.0,85,0.00,,,0.00,Wunderground v.1.15,2013-02-04 04:06:00,
2013-02-03 23:08:00,52.0,47.6,30.08,NNE,12,0.0,0.0,85,0.00,,,0.00,Wunderground v.1.15,2013-02-04 04:08:00,
2013-02-03 23:09:00,51.9,47.8,30.08,NNE,12,0.0,0.0,86,0.00,,,0.00,Wunderground v.1.15,2013-02-04 04:09:00,
2013-02-03 23:11:00,52.0,48.3,30.08,NNE,12,0.0,0.0,87,0.00,,,0.00,Wunderground v.1.15,2013-02-04 04:11:00,
2013-02-03 23:13:00,52.1,48.3,30.08,NNE,12,0.0,0.0,87,0.00,,,0.00,Wunderground v.1.15,2013-02-04 04:13:00,
2013-02-03 23:14:00,52.1,48.3,30.08,NNE,12,0.0,0.0,87,0.00,,,0.00,Wunderground v.1.15,2013-02-04 04:14:00,
2013-02-03 23:15:00,52.1,48.3,30.08,NNE,12,0.0,0.0,87,0.00,,,0.00,Wunderground v.1.15,2013-02-04 04:15:00,
2013-02-03 23:16:00,52.0,48.3,30.08,NNE,12,0.0,0.0,87,0.00,,,0.00,Wunderground v.1.15,2013-02-04 04:16:00,
2013-02-03 23:19:00,51.9,48.2,30.08,NNE,12,0.0,0.0,87,0.00,,,0.00,Wunderground v.1.15,2013-02-04 04:19:00,
2013-02-03 23:20:00,51.9,48.5,30.08,NNE,12,0.0,0.0,88,0.00,,,0.00,Wunderground v.1.15,2013-02-04 04:20:00,
2013-02-03 23:22:00,52.1,48.7,30.08,NNE,12,0.0,0.0,88,0.00,,,0.00,Wunderground v.1.15,2013-02-04 04:22:00,
2013-02-03 23:24:00,52.7,49.5,30.08,NNE,12,0.0,0.0,89,0.00,,,0.00,Wunderground v.1.15,2013-02-04 04:24:00,
2013-02-03 23:25:00,52.9,49.7,30.08,NNE,12,0.0,0.0,89,0.00,,,0.00,Wunderground v.1.15,2013-02-04 04:25:00,
2013-02-03 23:27:00,53.0,49.8,30.08,NNE,12,0.0,0.0,89,0.00,,,0.00,Wunderground v.1.15,2013-02-04 04:27:00,
2013-02-03 23:29:00,53.0,49.5,30.08,NNE,12,0.0,0.0,88,0.00,,,0.00,Wunderground v.1.15,2013-02-04 04:29:00,
2013-02-03 23:30:00,53.0,49.5,30.08,NNE,12,0.0,0.0,88,0.00,,,0.00,Wunderground v.1.15,2013-02-04 04:30:00,
2013-02-03 23:32:00,52.9,49.4,30.08,NNE,12,0.0,0.0,88,0.00,,,0.00,Wunderground v.1.15,2013-02-04 04:32:00,
2013-02-03 23:35:00,52.8,49.3,30.08,NNE,12,0.0,0.0,88,0.00,,,0.00,Wunderground v.1.15,2013-02-04 04:35:00,
2013-02-03 23:36:00,52.7,48.9,30.08,NNE,12,0.0,0.0,87,0.00,,,0.00,Wunderground v.1.15,2013-02-04 04:36:00,
2013-02-03 23:37:00,52.6,48.8,30.08,NNE,12,0.0,0.0,87,0.00,,,0.00,Wunderground v.1.15,2013-02-04 04:37:00,
2013-02-03 23:40:00,52.4,48.6,30.08,NNE,12,0.0,0.0,87,0.00,,,0.00,Wunderground v.1.15,2013-02-04 04:40:00,
2013-02-03 23:41:00,52.2,48.4,30.08,NNE,12,0.0,0.0,87,0.00,,,0.00,Wunderground v.1.15,2013-02-04 04:41:00,
2013-02-03 23:43:00,51.9,48.2,30.08,NNE,12,0.0,0.0,87,0.00,,,0.00,Wunderground v.1.15,2013-02-04 04:43:00,
2013-02-03 23:45:00,51.7,48.3,30.08,NNE,12,0.0,0.0,88,0.00,,,0.00,Wunderground v.1.15,2013-02-04 04:45:00,
2013-02-03 23:46:00,51.7,48.3,30.08,NNE,12,0.0,0.0,88,0.00,,,0.00,Wunderground v.1.15,2013-02-04 04:46:00,
2013-02-03 23:48:00,51.6,48.2,30.08,NNE,12,0.0,0.0,88,0.00,,,0.00,Wunderground v.1.15,2013-02-04 04:48:00,
2013-02-03 23:50:00,51.6,48.2,30.08,NNE,12,0.0,0.0,88,0.00,,,0.00,Wunderground v.1.15,2013-02-04 04:50:00,
2013-02-03 23:52:00,51.5,48.1,30.08,NNE,12,0.0,0.0,88,0.00,,,0.00,Wunderground v.1.15,2013-02-04 04:52:00,
2013-02-03 23:53:00,51.4,48.0,30.08,NNE,12,0.0,0.0,88,0.00,,,0.00,Wunderground v.1.15,2013-02-04 04:53:00,
2013-02-03 23:55:00,51.4,48.3,30.08,NNE,12,0.0,0.0,89,0.00,,,0.00,Wunderground v.1.15,2013-02-04 04:55:00,
2013-02-03 23:57:00,51.4,48.3,30.07,NNE,12,0.0,0.0,89,0.00,,,0.00,Wunderground v.1.15,2013-02-04 04:57:00,